DL9MFL-6 Weather Reports


time (UTC)temp
C
wind
direction
speed
KPH
gust
KPH
rain 1hr
cm
rain 24hr
cm
rain mn
cm
humidity
%
barometer
mb
20260508063700 8 63 3.2 8.0 0.00 0.03 0.00 96 1014.2
20260508063601 8 60 3.2 8.0 0.00 0.03 0.00 96 1014.2
20260508063501 7 61 3.2 8.0 0.00 0.03 0.00 96 1014.2
20260508063401 7 61 3.2 8.0 0.00 0.03 0.00 96 1014.2
20260508063301 7 62 3.2 11.3 0.00 0.03 0.00 96 1014.2
20260508063201 7 62 3.2 11.3 0.00 0.03 0.00 96 1014.2
20260508063100 7 62 3.2 11.3 0.00 0.03 0.00 96 1014.2
20260508063000 7 65 3.2 11.3 0.00 0.03 0.00 96 1014.2
20260508062900 7 63 3.2 11.3 0.00 0.03 0.00 96 1014.2
20260508062800 7 63 3.2 11.3 0.00 0.03 0.00 96 1014.2
20260508062701 7 62 3.2 11.3 0.00 0.03 0.00 96 1014.2
20260508062601 7 63 3.2 11.3 0.00 0.03 0.00 96 1014.2
20260508062502 7 67 3.2 11.3 0.00 0.03 0.00 96 1014.2
20260508062401 7 64 1.6 11.3 0.00 0.03 0.00 96 1014.2
20260508062305 7 67 1.6 8.0 0.00 0.03 0.00 96 1014.1
20260508062201 7 57 1.6 8.0 0.00 0.03 0.00 96 1014.1
20260508062101 7 58 1.6 8.0 0.00 0.03 0.00 96 1014.1
20260508062001 6 59 1.6 8.0 0.00 0.03 0.00 96 1014.1
20260508061901 6 64 0.0 8.0 0.00 0.03 0.00 96 1014.1
20260508061801 6 57 0.0 4.8 0.00 0.03 0.00 96 1014.1
20260508061701 6 59 0.0 4.8 0.00 0.03 0.00 96 1014.1
20260508061601 6 54 0.0 0.0 0.00 0.03 0.00 96 1014.1
20260508061501 6 54 0.0 0.0 0.00 0.03 0.00 96 1014.1
20260508061400 6 54 0.0 0.0 0.00 0.03 0.00 96 1014.1
20260508061301 6 54 0.0 0.0 0.00 0.03 0.00 95 1014.1
20260508061201 6 54 0.0 0.0 0.00 0.03 0.00 96 1014.1
20260508061101 6 54 0.0 1.6 0.00 0.03 0.00 96 1014.1
20260508061001 6 54 0.0 1.6 0.00 0.03 0.00 96 1014.1
20260508060925 6 54 0.0 1.6 0.00 0.03 0.00 96 1014.1
20260508060917 6 54 0.0 1.6 0.00 0.03 0.00 96 1014.1
20260508060913 6 54 0.0 1.6 0.00 0.03 0.00 96 1014.1
20260508060601 6 54 0.0 1.6 0.00 0.03 0.00 96 1014.1
20260508060501 6 54 0.0 1.6 0.00 0.03 0.00 96 1014.1
20260508060424 6 54 0.0 1.6 0.00 0.03 0.00 95 1014.1
20260508060416 6 54 0.0 1.6 0.00 0.03 0.00 95 1014.1
20260508060412 6 54 0.0 1.6 0.00 0.03 0.00 95 1014.1
20260508060152 5 57 0.0 1.6 0.00 0.03 0.00 96 1014.1
20260508060142 6 57 0.0 1.6 0.00 0.03 0.00 95 1014.1
20260508060138 6 57 0.0 1.6 0.00 0.03 0.00 96 1014.1
20260508055923 5 57 0.0 1.6 0.00 0.03 0.00 96 1014.1
20260508055915 5 57 0.0 1.6 0.00 0.03 0.00 96 1014.1
20260508055911 5 57 0.0 1.6 0.00 0.03 0.00 96 1014.1
20260508055601 5 57 0.0 1.6 0.00 0.03 0.00 95 1014.1
20260508055501 5 57 0.0 3.2 0.00 0.03 0.00 95 1014.1
20260508055401 5 57 0.0 3.2 0.00 0.03 0.00 95 1014.1
20260508055305 5 57 0.0 3.2 0.00 0.03 0.00 95 1013.9
20260508055201 5 57 0.0 3.2 0.00 0.03 0.00 95 1014.1
20260508055101 5 57 0.0 3.2 0.00 0.03 0.00 95 1013.9
20260508055001 5 57 0.0 3.2 0.00 0.03 0.00 95 1013.9
20260508054902 5 57 0.0 3.2 0.00 0.03 0.00 95 1013.9
20260508054804 5 57 0.0 3.2 0.00 0.03 0.00 95 1013.9
20260508054701 5 57 0.0 3.2 0.00 0.03 0.00 95 1013.9
20260508054601 5 57 0.0 3.2 0.00 0.03 0.00 95 1013.8
20260508054501 5 57 0.0 3.2 0.00 0.03 0.00 95 1013.8
20260508054401 5 57 0.0 3.2 0.00 0.03 0.00 95 1013.8
20260508054302 5 56 0.0 3.2 0.00 0.03 0.00 95 1013.8
20260508054201 5 56 0.0 3.2 0.00 0.03 0.00 95 1013.8
20260508054101 4 56 0.0 3.2 0.00 0.03 0.00 95 1013.8
20260508054001 4 56 0.0 3.2 0.00 0.03 0.00 95 1013.9
20260508053929 4 56 0.0 3.2 0.00 0.03 0.00 95 1013.9
20260508053925 4 56 0.0 3.2 0.00 0.03 0.00 95 1013.9
20260508053921 4 56 0.0 3.2 0.00 0.03 0.00 95 1013.9
20260508053601 4 57 0.0 3.2 0.00 0.03 0.00 95 1013.8
20260508053501 4 57 0.0 3.2 0.00 0.03 0.00 95 1013.9
20260508053401 4 57 0.0 3.2 0.00 0.03 0.00 95 1013.8
20260508053301 4 56 0.0 3.2 0.00 0.03 0.00 95 1013.9
20260508053201 4 57 0.0 3.2 0.00 0.03 0.00 95 1013.8
20260508053101 4 56 0.0 3.2 0.00 0.03 0.00 95 1013.8
20260508053001 3 55 0.0 1.6 0.00 0.03 0.00 95 1013.8
20260508052900 3 55 0.0 1.6 0.00 0.03 0.00 95 1013.8
20260508052800 3 55 0.0 1.6 0.00 0.03 0.00 95 1013.8
20260508052701 3 55 0.0 1.6 0.00 0.03 0.00 95 1013.8
20260508052602 3 55 0.0 1.6 0.00 0.03 0.00 95 1013.8
20260508052502 3 55 0.0 1.6 0.00 0.03 0.00 95 1013.8
20260508052426 3 55 0.0 3.2 0.00 0.03 0.00 95 1013.8
20260508052422 3 55 0.0 3.2 0.00 0.03 0.00 94 1013.8
20260508052414 3 55 0.0 3.2 0.00 0.03 0.00 94 1013.8
20260508052102 3 55 0.0 3.2 0.00 0.03 0.00 94 1013.8
20260508052001 3 56 0.0 3.2 0.00 0.03 0.00 94 1013.8
20260508051901 3 57 1.6 4.8 0.00 0.03 0.00 94 1013.8
20260508051801 3 57 1.6 4.8 0.00 0.03 0.00 94 1013.8
20260508051702 3 57 1.6 4.8 0.00 0.03 0.00 94 1013.8
20260508051601 3 57 1.6 4.8 0.00 0.03 0.00 94 1013.8
20260508051501 3 57 1.6 4.8 0.00 0.03 0.00 94 1013.8
20260508051400 3 57 1.6 4.8 0.00 0.03 0.00 94 1013.8
20260508051301 3 57 1.6 4.8 0.00 0.03 0.00 94 1013.8
20260508051201 3 57 1.6 4.8 0.00 0.03 0.00 94 1013.8
20260508051101 3 57 1.6 4.8 0.00 0.03 0.00 94 1013.7
20260508051001 3 57 1.6 4.8 0.00 0.03 0.00 94 1013.7
20260508050901 3 57 1.6 3.2 0.00 0.03 0.00 94 1013.7
20260508050800 3 57 1.6 3.2 0.00 0.03 0.00 94 1013.7
20260508050700 3 57 0.0 3.2 0.00 0.03 0.00 94 1013.7
20260508050600 3 57 0.0 3.2 0.00 0.03 0.00 94 1013.7
20260508050500 3 57 0.0 3.2 0.00 0.03 0.00 94 1013.6
20260508050400 3 57 0.0 3.2 0.00 0.03 0.00 94 1013.6
20260508050301 3 57 0.0 3.2 0.00 0.03 0.00 94 1013.6
20260508050200 3 57 0.0 1.6 0.00 0.03 0.00 94 1013.5
20260508050100 3 57 0.0 1.6 0.00 0.03 0.00 94 1013.5
20260508050001 3 57 0.0 1.6 0.00 0.03 0.00 94 1013.5
20260508045901 3 57 0.0 1.6 0.00 0.03 0.00 94 1013.5
20260508045801 3 57 0.0 1.6 0.00 0.03 0.00 94 1013.5
20260508045706 3 57 0.0 1.6 0.00 0.03 0.00 94 1013.4
20260508045654 3 57 0.0 3.2 0.00 0.03 0.00 93 1013.4
20260508045643 3 57 0.0 1.6 0.00 0.03 0.00 94 1013.4
20260508045639 3 57 0.0 1.6 0.00 0.03 0.00 94 1013.4
20260508045418 3 57 0.0 3.2 0.00 0.03 0.00 94 1013.4
20260508045414 3 57 0.0 3.2 0.00 0.03 0.00 94 1013.4
20260508045409 3 57 0.0 3.2 0.00 0.03 0.00 93 1013.4
20260508045049 3 57 0.0 3.2 0.00 0.03 0.00 93 1013.4
20260508044949 3 58 0.0 3.2 0.00 0.03 0.00 93 1013.4
20260508044849 3 58 1.6 3.2 0.00 0.03 0.00 93 1013.5
20260508044749 3 58 1.6 3.2 0.00 0.03 0.00 93 1013.5
20260508044653 3 58 1.6 3.2 0.00 0.03 0.00 93 1013.5
20260508044549 3 58 1.6 3.2 0.00 0.03 0.00 93 1013.5
20260508044447 3 58 1.6 3.2 0.00 0.03 0.00 93 1013.5
20260508044345 3 58 1.6 3.2 0.00 0.03 0.00 93 1013.4
20260508044244 3 58 1.6 3.2 0.00 0.03 0.00 93 1013.4
20260508044147 3 58 1.6 3.2 0.00 0.03 0.00 93 1013.4
20260508044039 3 58 1.6 3.2 0.00 0.03 0.00 93 1013.4
20260508043940 3 58 0.0 3.2 0.00 0.03 0.00 93 1013.3
20260508043839 3 58 0.0 3.2 0.00 0.03 0.00 93 1013.3
20260508043739 3 58 0.0 3.2 0.00 0.03 0.00 93 1013.3
20260508043641 3 58 0.0 3.2 0.00 0.03 0.00 93 1013.3
20260508043620 3 58 0.0 0.0 0.00 0.03 0.00 93 1013.3
20260508043614 3 58 0.0 3.2 0.00 0.03 0.00 93 1013.3
20260508043610 3 58 0.0 0.0 0.00 0.03 0.00 93 1013.3
20260508043353 3 58 0.0 0.0 0.00 0.03 0.00 93 1013.3
20260508043349 3 57 0.0 0.0 0.00 0.03 0.00 93 1013.3
20260508043345 3 58 0.0 0.0 0.00 0.03 0.00 93 1013.3
20260508043035 3 58 0.0 0.0 0.00 0.03 0.00 93 1013.3
20260508042933 3 58 0.0 0.0 0.00 0.03 0.00 93 1013.4
20260508042833 3 57 0.0 0.0 0.00 0.03 0.00 93 1013.4
20260508042732 3 58 0.0 0.0 0.00 0.03 0.00 93 1013.3
20260508042629 3 59 0.0 0.0 0.00 0.03 0.00 93 1013.3
20260508042529 3 59 0.0 0.0 0.00 0.03 0.00 93 1013.3
20260508042429 3 59 0.0 0.0 0.00 0.03 0.00 93 1013.3
20260508042329 3 59 0.0 0.0 0.00 0.03 0.00 93 1013.3
20260508042229 3 59 0.0 0.0 0.00 0.03 0.00 93 1013.3
20260508042129 3 59 0.0 0.0 0.00 0.03 0.00 93 1013.3
20260508042029 3 59 0.0 0.0 0.00 0.03 0.00 93 1013.3
20260508041929 3 59 0.0 0.0 0.00 0.03 0.00 93 1013.3
20260508041829 3 59 0.0 0.0 0.00 0.03 0.00 93 1013.3
20260508041727 3 59 0.0 0.0 0.00 0.03 0.00 93 1013.3
20260508041627 3 59 0.0 0.0 0.00 0.03 0.00 93 1013.3
20260508041525 3 59 0.0 0.0 0.00 0.03 0.00 93 1013.3
20260508041423 3 59 0.0 0.0 0.00 0.03 0.00 93 1013.3
20260508041323 3 59 0.0 0.0 0.00 0.03 0.00 93 1013.3
20260508041221 3 59 0.0 0.0 0.00 0.03 0.00 93 1013.3
20260508041121 3 59 0.0 0.0 0.00 0.03 0.00 93 1013.3
20260508041116 3 59 0.0 0.0 0.00 0.03 0.00 93 1013.3
20260508041107 3 59 0.0 0.0 0.00 0.03 0.00 93 1013.3
20260508041103 3 59 0.0 0.0 0.00 0.03 0.00 93 1013.3
20260508040843 3 59 0.0 0.0 0.00 0.03 0.00 93 1013.3
20260508040840 3 59 0.0 0.0 0.00 0.03 0.00 93 1013.3
20260508040613 3 59 0.0 0.0 0.00 0.03 0.00 93 1013.3
20260508040513 3 59 0.0 0.0 0.00 0.03 0.00 93 1013.3
20260508040411 3 59 0.0 0.0 0.00 0.03 0.00 93 1013.3
20260508040311 3 59 0.0 0.0 0.00 0.03 0.00 93 1013.2
20260508040209 3 59 0.0 0.0 0.00 0.03 0.00 93 1013.3
20260508040109 3 59 0.0 0.0 0.00 0.03 0.00 93 1013.3
20260508040007 3 59 0.0 0.0 0.00 0.03 0.00 93 1013.3
20260508035905 3 59 0.0 0.0 0.00 0.03 0.00 93 1013.3
20260508035805 3 59 0.0 0.0 0.00 0.03 0.00 93 1013.3
20260508035701 3 59 0.0 0.0 0.00 0.03 0.00 93 1013.3
20260508035602 3 59 0.0 0.0 0.00 0.03 0.00 93 1013.3
20260508035501 3 59 0.0 0.0 0.00 0.03 0.00 93 1013.3
20260508035401 3 59 0.0 0.0 0.00 0.03 0.00 93 1013.3
20260508035302 3 59 0.0 0.0 0.00 0.03 0.00 93 1013.3
20260508035200 3 59 0.0 0.0 0.00 0.03 0.00 93 1013.3
20260508035101 3 59 0.0 0.0 0.00 0.03 0.00 93 1013.3
20260508035001 3 59 0.0 0.0 0.00 0.03 0.00 93 1013.3
20260508034901 3 59 0.0 0.0 0.00 0.03 0.00 93 1013.3
20260508034801 3 59 0.0 0.0 0.00 0.03 0.00 93 1013.3
20260508034701 3 59 0.0 0.0 0.00 0.03 0.00 93 1013.3
20260508034600 3 59 0.0 0.0 0.00 0.03 0.00 93 1013.3
20260508034501 3 59 0.0 0.0 0.00 0.03 0.00 93 1013.3
20260508034400 3 59 0.0 0.0 0.00 0.03 0.00 93 1013.3
20260508034300 3 59 0.0 0.0 0.00 0.03 0.00 93 1013.2
20260508034200 3 59 0.0 0.0 0.00 0.03 0.00 93 1013.2
20260508034101 3 59 0.0 0.0 0.00 0.03 0.00 93 1013.2
20260508034001 3 59 0.0 1.6 0.00 0.03 0.00 93 1013.2
20260508033901 3 59 0.0 1.6 0.00 0.03 0.00 93 1013.2
20260508033801 3 59 0.0 1.6 0.00 0.03 0.00 93 1013.2
20260508033701 3 59 0.0 1.6 0.00 0.03 0.00 93 1013.2
20260508033600 3 59 0.0 1.6 0.00 0.03 0.00 93 1013.2
20260508033500 3 59 0.0 1.6 0.00 0.03 0.00 93 1013.2
20260508033401 3 59 0.0 1.6 0.00 0.03 0.00 93 1013.2
20260508033301 3 59 0.0 1.6 0.00 0.03 0.00 93 1013.2
20260508033201 3 59 0.0 1.6 0.00 0.03 0.00 93 1013.2
20260508033101 3 59 0.0 1.6 0.00 0.03 0.00 93 1013.2
20260508033000 3 59 0.0 1.6 0.00 0.03 0.00 93 1013.1
20260508032900 3 59 0.0 1.6 0.00 0.03 0.00 93 1013.1
20260508032801 3 59 0.0 1.6 0.00 0.03 0.00 93 1013.1
20260508032701 3 59 0.0 1.6 0.00 0.03 0.00 93 1013.1
20260508032600 3 59 0.0 1.6 0.00 0.03 0.00 93 1013.1
20260508032501 3 59 0.0 1.6 0.00 0.03 0.00 93 1013.1
20260508032401 3 59 0.0 1.6 0.00 0.03 0.00 93 1013.1
20260508032305 3 59 0.0 1.6 0.00 0.03 0.00 93 1013.1
20260508032201 3 59 0.0 1.6 0.00 0.03 0.00 93 1013.1
20260508032101 3 61 0.0 1.6 0.00 0.03 0.00 93 1013.0
20260508032001 3 61 0.0 1.6 0.00 0.03 0.00 93 1013.1
20260508031901 3 61 0.0 1.6 0.00 0.03 0.00 93 1013.1
20260508031801 3 61 0.0 1.6 0.00 0.03 0.00 93 1013.1
20260508031700 3 61 0.0 1.6 0.00 0.03 0.00 93 1013.1
20260508031601 3 61 0.0 1.6 0.00 0.03 0.00 93 1013.1
20260508031506 3 61 0.0 1.6 0.00 0.03 0.00 93 1013.1
20260508031401 3 61 0.0 1.6 0.00 0.03 0.00 93 1013.1
20260508031201 3 61 0.0 1.6 0.00 0.03 0.00 93 1013.1
20260508031101 3 61 0.0 0.0 0.00 0.03 0.00 93 1013.1
20260508031001 3 61 0.0 0.0 0.00 0.03 0.00 92 1013.0
20260508030902 3 61 0.0 0.0 0.00 0.03 0.00 92 1013.1
20260508030801 3 61 0.0 0.0 0.00 0.03 0.00 92 1013.1
20260508030700 3 61 0.0 0.0 0.00 0.03 0.00 92 1013.1
20260508030600 3 61 0.0 0.0 0.00 0.03 0.00 92 1013.0
20260508030500 3 61 0.0 0.0 0.00 0.03 0.00 92 1013.1
20260508030400 3 61 0.0 0.0 0.00 0.03 0.00 92 1013.1
20260508030300 3 61 0.0 0.0 0.00 0.03 0.00 92 1013.1
20260508030200 3 61 0.0 0.0 0.00 0.03 0.00 92 1013.1
20260508030001 3 61 0.0 0.0 0.00 0.03 0.00 92 1013.0
20260508025900 3 61 0.0 0.0 0.00 0.03 0.00 92 1013.0
20260508025800 3 61 0.0 0.0 0.00 0.03 0.00 92 1013.0
20260508025701 3 61 0.0 0.0 0.00 0.03 0.00 92 1013.0
20260508025601 3 61 0.0 0.0 0.00 0.03 0.00 92 1013.0
20260508025501 3 61 0.0 0.0 0.00 0.03 0.00 92 1013.0
20260508025401 3 61 0.0 1.6 0.00 0.03 0.00 92 1013.0
20260508025301 3 61 0.0 1.6 0.00 0.03 0.00 92 1013.0
20260508025200 3 61 0.0 1.6 0.00 0.03 0.00 92 1013.0
20260508025101 3 61 0.0 1.6 0.00 0.03 0.00 92 1013.0
20260508025001 3 61 0.0 1.6 0.00 0.03 0.00 92 1013.0
20260508024901 3 61 0.0 1.6 0.00 0.03 0.00 92 1013.0
20260508024850 3 61 0.0 1.6 0.00 0.03 0.00 92 1013.0
20260508024845 3 61 0.0 1.6 0.00 0.03 0.00 92 1013.0
20260508024841 3 61 0.0 1.6 0.00 0.03 0.00 92 1013.0
20260508024601 3 61 0.0 1.6 0.00 0.03 0.00 92 1013.0
20260508024501 3 61 0.0 1.6 0.00 0.03 0.00 92 1013.0
20260508024401 3 61 0.0 0.0 0.00 0.03 0.00 92 1013.0
20260508024301 3 61 0.0 0.0 0.00 0.03 0.00 92 1013.0
20260508024200 3 61 0.0 0.0 0.00 0.03 0.00 92 1013.0
20260508024100 3 61 0.0 1.6 0.00 0.03 0.00 92 1013.0
20260508024001 3 61 0.0 1.6 0.00 0.03 0.00 92 1013.0
20260508023900 3 61 0.0 1.6 0.00 0.03 0.00 92 1013.0
20260508023800 3 61 0.0 1.6 0.00 0.03 0.00 92 1013.0
20260508023701 3 61 0.0 1.6 0.00 0.03 0.00 92 1013.0
20260508023601 3 61 0.0 1.6 0.00 0.03 0.00 92 1013.0
20260508023501 3 61 0.0 1.6 0.00 0.03 0.00 92 1013.0
20260508023401 3 61 0.0 1.6 0.00 0.03 0.00 92 1013.0
20260508023301 3 61 0.0 1.6 0.00 0.03 0.00 92 1013.1
20260508023200 3 61 0.0 1.6 0.00 0.03 0.00 92 1013.1
20260508023100 3 61 0.0 1.6 0.00 0.03 0.00 92 1013.0
20260508023000 3 61 0.0 1.6 0.00 0.03 0.00 92 1013.1
20260508022900 3 61 0.0 1.6 0.00 0.03 0.00 92 1013.1
20260508022801 3 61 0.0 1.6 0.00 0.03 0.00 92 1013.1
20260508022701 3 61 0.0 1.6 0.00 0.03 0.00 92 1013.1
20260508022601 3 61 0.0 1.6 0.00 0.03 0.00 92 1013.1
20260508022501 3 61 0.0 1.6 0.00 0.03 0.00 92 1013.0
20260508022406 3 61 0.0 1.6 0.00 0.03 0.00 92 1013.0
20260508022255 3 61 0.0 1.6 0.00 0.03 0.00 92 1013.1
20260508022129 3 61 0.0 1.6 0.00 0.03 0.00 92 1013.0
20260508022055 3 61 0.0 1.6 0.00 0.03 0.00 92 1013.0
20260508021955 3 61 0.0 1.6 0.00 0.03 0.00 92 1013.0
20260508021858 3 61 0.0 1.6 0.00 0.03 0.00 92 1013.1
20260508021751 3 61 0.0 1.6 0.00 0.03 0.00 92 1013.0
20260508021649 3 61 0.0 1.6 0.00 0.03 0.00 92 1013.0
20260508021629 3 61 0.0 1.6 0.00 0.03 0.00 91 1013.0
20260508021549 3 61 0.0 1.6 0.00 0.03 0.00 92 1013.0
20260508021449 3 61 0.0 1.6 0.00 0.03 0.00 91 1013.0
20260508021354 3 61 0.0 1.6 0.00 0.03 0.00 91 1013.0
20260508021245 3 61 0.0 1.6 0.00 0.03 0.00 91 1013.0
20260508021129 3 61 0.0 1.6 0.00 0.03 0.00 91 1013.1
20260508021043 3 61 0.0 1.6 0.00 0.03 0.00 91 1013.1
20260508020943 3 61 0.0 1.6 0.00 0.03 0.00 92 1013.1
20260508020847 3 61 0.0 3.2 0.00 0.03 0.00 92 1013.1
20260508020743 3 61 1.6 3.2 0.00 0.03 0.00 92 1013.1
20260508020628 3 61 1.6 3.2 0.00 0.03 0.00 92 1013.1
20260508020540 3 61 1.6 3.2 0.00 0.03 0.00 92 1013.2
20260508020439 3 61 1.6 3.2 0.00 0.03 0.00 92 1013.2
20260508020340 3 61 1.6 3.2 0.00 0.03 0.00 92 1013.2
20260508020237 3 61 1.6 3.2 0.00 0.03 0.00 92 1013.1
20260508020129 3 61 1.6 3.2 0.00 0.03 0.00 92 1013.1
20260508020035 3 61 1.6 3.2 0.00 0.03 0.00 92 1013.2
20260508015932 3 61 1.6 3.2 0.00 0.03 0.00 92 1013.2
20260508015833 3 61 1.6 3.2 0.00 0.03 0.00 92 1013.2
20260508015729 3 61 1.6 3.2 0.00 0.03 0.00 92 1013.1
20260508015629 3 61 1.6 3.2 0.00 0.03 0.00 92 1013.2
20260508015529 3 61 1.6 3.2 0.00 0.03 0.00 91 1013.2
20260508015429 3 61 1.6 3.2 0.00 0.03 0.00 91 1013.1
20260508015352 3 61 1.6 3.2 0.00 0.03 0.00 91 1013.2
20260508015344 3 61 1.6 3.2 0.00 0.03 0.00 91 1013.1
20260508015340 3 61 1.6 3.2 0.00 0.03 0.00 91 1013.2
20260508015029 3 61 1.6 3.2 0.00 0.03 0.00 91 1013.2
20260508014929 3 61 0.0 3.2 0.00 0.03 0.00 91 1013.2
20260508014829 3 61 0.0 3.2 0.00 0.03 0.00 91 1013.2
20260508014729 3 61 0.0 3.2 0.00 0.03 0.00 91 1013.2
20260508014628 3 61 0.0 3.2 0.00 0.03 0.00 91 1013.2
20260508014528 3 61 0.0 3.2 0.00 0.03 0.00 91 1013.2
20260508014429 3 61 0.0 3.2 0.00 0.03 0.00 91 1013.2
20260508014328 3 61 0.0 3.2 0.00 0.03 0.00 91 1013.2
20260508014229 3 61 0.0 3.2 0.00 0.03 0.00 91 1013.2
20260508014129 3 61 0.0 1.6 0.00 0.03 0.00 91 1013.2
20260508014029 3 61 0.0 1.6 0.00 0.03 0.00 91 1013.2
20260508013929 3 61 0.0 1.6 0.00 0.03 0.00 90 1013.2
20260508013828 3 61 0.0 1.6 0.00 0.03 0.00 90 1013.2
20260508013729 3 61 0.0 1.6 0.00 0.03 0.00 90 1013.2
20260508013629 3 61 0.0 3.2 0.00 0.03 0.00 90 1013.2
20260508013528 3 61 0.0 3.2 0.00 0.03 0.00 90 1013.2
20260508013428 3 61 0.0 3.2 0.00 0.03 0.00 90 1013.2
20260508013351 3 61 0.0 3.2 0.00 0.03 0.00 90 1013.2
20260508013344 3 61 0.0 3.2 0.00 0.03 0.00 89 1013.2
20260508013340 3 61 0.0 3.2 0.00 0.03 0.00 89 1013.2
20260508013029 3 61 1.6 3.2 0.00 0.03 0.00 90 1013.2
20260508012928 3 61 1.6 3.2 0.00 0.03 0.00 89 1013.2
20260508012828 3 61 1.6 4.8 0.00 0.03 0.00 89 1013.2
20260508012729 3 61 1.6 4.8 0.00 0.03 0.00 89 1013.2
20260508012629 3 61 1.6 4.8 0.00 0.03 0.00 89 1013.2
20260508012528 3 61 1.6 4.8 0.00 0.03 0.00 89 1013.2
20260508012429 3 61 1.6 4.8 0.00 0.03 0.00 90 1013.2
20260508012329 3 61 1.6 4.8 0.00 0.03 0.00 90 1013.2
20260508012229 3 61 1.6 4.8 0.00 0.03 0.00 90 1013.2
20260508012129 3 61 1.6 4.8 0.00 0.03 0.00 91 1013.2
20260508012028 4 61 1.6 4.8 0.00 0.03 0.00 91 1013.2
20260508011928 4 61 1.6 4.8 0.00 0.03 0.00 91 1013.2
20260508011829 4 61 1.6 4.8 0.00 0.03 0.00 91 1013.2
20260508011729 4 61 1.6 4.8 0.00 0.03 0.00 91 1013.2
20260508011629 4 61 1.6 4.8 0.00 0.03 0.00 91 1013.2
20260508011529 4 61 1.6 4.8 0.00 0.03 0.00 91 1013.2
20260508011429 4 61 1.6 4.8 0.00 0.03 0.00 91 1013.2
20260508011329 4 61 1.6 4.8 0.00 0.03 0.00 91 1013.2
20260508011229 4 61 1.6 4.8 0.00 0.03 0.00 91 1013.2
20260508011128 4 61 1.6 4.8 0.00 0.03 0.00 91 1013.1
20260508011028 4 61 3.2 4.8 0.00 0.03 0.00 91 1013.1
20260508010929 4 61 3.2 4.8 0.00 0.03 0.00 91 1013.1
20260508010829 4 61 1.6 4.8 0.00 0.03 0.00 91 1013.2
20260508010733 4 61 1.6 4.8 0.00 0.03 0.00 91 1013.1
20260508010629 4 61 1.6 4.8 0.00 0.03 0.00 91 1013.1
20260508010528 4 61 1.6 4.8 0.00 0.03 0.00 91 1013.2
20260508010428 4 61 1.6 4.8 0.00 0.03 0.00 91 1013.2
20260508010328 4 61 1.6 4.8 0.00 0.03 0.00 90 1013.2
20260508010228 4 61 0.0 1.6 0.00 0.03 0.00 90 1013.2
20260508010128 4 61 0.0 1.6 0.00 0.03 0.00 90 1013.2
20260508010028 4 61 0.0 1.6 0.00 0.03 0.00 90 1013.2
20260508005929 4 61 0.0 1.6 0.00 0.03 0.00 90 1013.2
20260508005829 4 61 0.0 1.6 0.00 0.03 0.00 90 1013.2
20260508005729 4 61 0.0 1.6 0.00 0.03 0.00 90 1013.1
20260508005630 4 61 0.0 1.6 0.00 0.03 0.00 90 1013.2
20260508005529 4 61 0.0 1.6 0.00 0.03 0.00 90 1013.2
20260508005428 4 61 0.0 1.6 0.00 0.03 0.00 90 1013.2
20260508005328 4 61 0.0 0.0 0.00 0.03 0.00 90 1013.2
20260508005229 4 61 0.0 0.0 0.00 0.03 0.00 89 1013.3
20260508005129 4 61 0.0 0.0 0.00 0.03 0.00 89 1013.3
20260508005029 4 61 0.0 0.0 0.00 0.03 0.00 89 1013.3
20260508004929 4 61 0.0 0.0 0.00 0.03 0.00 89 1013.3
20260508004829 4 61 0.0 0.0 0.00 0.03 0.00 89 1013.3
20260508004729 4 61 0.0 0.0 0.00 0.03 0.00 89 1013.4
20260508004629 4 61 0.0 1.6 0.00 0.03 0.00 89 1013.3
20260508004529 4 61 0.0 1.6 0.00 0.03 0.00 89 1013.4
20260508004429 4 61 0.0 1.6 0.00 0.03 0.00 89 1013.4
20260508004328 4 61 0.0 1.6 0.00 0.03 0.00 89 1013.4
20260508004228 4 61 0.0 1.6 0.00 0.03 0.00 89 1013.4
20260508004129 4 61 0.0 3.2 0.00 0.03 0.00 89 1013.4
20260508004029 4 61 1.6 3.2 0.00 0.03 0.00 89 1013.4
20260508003929 4 61 1.6 3.2 0.00 0.03 0.00 89 1013.4
20260508003829 4 61 1.6 3.2 0.00 0.03 0.00 89 1013.4
20260508003728 4 61 1.6 3.2 0.00 0.03 0.00 89 1013.4
20260508003628 4 61 1.6 3.2 0.00 0.03 0.00 89 1013.4
20260508003528 4 61 1.6 3.2 0.00 0.03 0.00 89 1013.5
20260508003428 4 61 1.6 3.2 0.00 0.03 0.00 89 1013.4
20260508003351 5 61 1.6 3.2 0.00 0.03 0.00 89 1013.4
20260508003347 5 61 1.6 3.2 0.00 0.03 0.00 90 1013.4
20260508003339 5 61 1.6 3.2 0.00 0.03 0.00 90 1013.4
20260508003029 5 61 1.6 3.2 0.00 0.03 0.00 90 1013.4
20260508002930 5 61 1.6 3.2 0.00 0.03 0.00 90 1013.4
20260508002828 5 61 1.6 3.2 0.00 0.03 0.00 90 1013.4
20260508002728 5 61 1.6 3.2 0.00 0.03 0.00 90 1013.4
20260508002629 5 61 1.6 3.2 0.00 0.03 0.00 90 1013.4
20260508002527 5 61 0.0 3.2 0.00 0.03 0.00 90 1013.4
20260508002427 5 61 0.0 3.2 0.00 0.03 0.00 90 1013.4
20260508002324 5 61 0.0 3.2 0.00 0.03 0.00 90 1013.4
20260508002224 5 61 0.0 3.2 0.00 0.03 0.00 90 1013.4
20260508002129 5 61 0.0 3.2 0.00 0.03 0.00 90 1013.4
20260508002125 5 61 0.0 3.2 0.00 0.03 0.00 89 1013.4
20260508002021 5 61 0.0 3.2 0.00 0.03 0.00 89 1013.4
20260508001920 5 61 0.0 1.6 0.00 0.03 0.00 89 1013.4
20260508001820 5 61 0.0 1.6 0.00 0.03 0.00 89 1013.4
20260508001720 5 61 0.0 1.6 0.00 0.03 0.00 89 1013.5
20260508001620 5 61 0.0 1.6 0.00 0.03 0.00 89 1013.5
20260508001521 5 61 0.0 1.6 0.00 0.03 0.00 89 1013.5
20260508001419 5 61 0.0 1.6 0.00 0.03 0.00 88 1013.5
20260508001319 5 61 0.0 1.6 0.00 0.03 0.00 88 1013.5
20260508001219 5 61 0.0 1.6 0.00 0.03 0.00 88 1013.5
20260508001118 5 61 0.0 1.6 0.00 0.03 0.00 87 1013.5
20260508000919 5 61 0.0 1.6 0.00 0.03 0.00 86 1013.5
20260508000819 5 61 0.0 1.6 0.00 0.03 0.00 87 1013.5
20260508000717 5 61 0.0 3.2 0.00 0.03 0.00 86 1013.5
20260508000617 5 61 0.0 3.2 0.00 0.03 0.00 87 1013.6
20260508000515 5 61 0.0 3.2 0.00 0.03 0.00 87 1013.6
20260508000414 5 61 0.0 3.2 0.00 0.03 0.00 86 1013.6
20260508000314 5 61 0.0 3.2 0.00 0.03 0.00 86 1013.6
20260508000214 5 61 0.0 3.2 0.00 0.03 0.00 86 1013.6
20260508000115 5 61 0.0 3.2 0.00 0.03 0.00 86 1013.6
20260508000015 5 61 0.0 3.2 0.00 0.03 0.00 87 1013.7
20260507235915 5 61 0.0 3.2 0.00 0.03 0.00 87 1013.7
20260507235815 5 61 0.0 3.2 0.00 0.03 0.00 87 1013.7
20260507235715 5 61 0.0 1.6 0.00 0.03 0.00 87 1013.7
20260507235610 5 61 0.0 0.0 0.00 0.03 0.00 87 1013.7
20260507235510 5 61 0.0 0.0 0.00 0.03 0.00 88 1013.7
20260507235411 5 61 0.0 0.0 0.00 0.03 0.00 88 1013.8
20260507235311 5 61 0.0 0.0 0.00 0.03 0.00 88 1013.7
20260507235211 5 61 0.0 0.0 0.00 0.03 0.00 88 1013.8
20260507235111 5 61 0.0 0.0 0.00 0.03 0.00 89 1013.8
20260507235010 6 61 0.0 0.0 0.00 0.03 0.00 88 1013.8
20260507234910 6 61 0.0 0.0 0.00 0.03 0.00 88 1013.8
20260507234810 6 61 0.0 0.0 0.00 0.03 0.00 88 1013.8
20260507234710 6 61 0.0 0.0 0.00 0.03 0.00 88 1013.8
20260507234615 6 61 0.0 0.0 0.00 0.03 0.00 88 1013.8
20260507234511 6 61 0.0 0.0 0.00 0.03 0.00 88 1013.8
20260507234411 6 61 0.0 0.0 0.00 0.03 0.00 88 1013.8
20260507234311 6 61 0.0 0.0 0.00 0.03 0.00 88 1013.8
20260507234211 6 61 0.0 0.0 0.00 0.03 0.00 88 1013.8
20260507234110 6 61 0.0 0.0 0.00 0.03 0.00 88 1013.8
20260507234010 6 61 0.0 0.0 0.00 0.03 0.00 89 1013.8
20260507233910 6 61 0.0 0.0 0.00 0.03 0.00 88 1013.8
20260507233810 6 61 0.0 0.0 0.00 0.03 0.00 89 1013.8
20260507233706 6 61 0.0 0.0 0.00 0.03 0.00 88 1013.8
20260507233628 6 61 0.0 0.0 0.00 0.03 0.00 89 1013.8
20260507233608 6 61 0.0 0.0 0.00 0.03 0.00 88 1013.8
20260507233507 6 61 0.0 0.0 0.00 0.03 0.00 88 1013.9
20260507233407 6 61 0.0 0.0 0.00 0.03 0.00 88 1013.9
20260507233307 6 61 0.0 0.0 0.00 0.03 0.00 88 1013.9
20260507233206 6 61 0.0 0.0 0.00 0.03 0.00 88 1013.9
20260507233106 6 61 0.0 0.0 0.00 0.03 0.00 88 1013.9
20260507233006 6 61 0.0 0.0 0.00 0.03 0.00 88 1013.9
20260507232906 6 61 0.0 0.0 0.00 0.03 0.00 88 1013.9
20260507232807 6 61 0.0 0.0 0.00 0.03 0.00 88 1013.9
20260507232707 6 61 0.0 0.0 0.00 0.03 0.00 88 1014.1
20260507232612 6 61 0.0 0.0 0.00 0.03 0.00 88 1013.9
20260507232507 6 61 0.0 0.0 0.00 0.03 0.00 88 1013.9
20260507232407 6 61 0.0 0.0 0.00 0.03 0.00 88 1014.1
20260507232307 6 61 0.0 0.0 0.00 0.03 0.00 88 1013.9
20260507232206 6 61 0.0 0.0 0.00 0.03 0.00 88 1014.1
20260507232129 6 61 0.0 0.0 0.00 0.03 0.00 88 1014.1
20260507232107 6 61 0.0 1.6 0.00 0.03 0.00 88 1014.1
20260507232006 6 61 0.0 1.6 0.00 0.03 0.00 88 1014.1
20260507231907 6 63 0.0 1.6 0.00 0.03 0.00 88 1013.9
20260507231803 6 63 0.0 1.6 0.00 0.03 0.00 87 1014.1
20260507231703 6 63 0.0 1.6 0.00 0.03 0.00 87 1014.1
20260507231602 6 63 0.0 1.6 0.00 0.03 0.00 87 1014.1
20260507231502 6 63 0.0 1.6 0.00 0.03 0.00 87 1014.1
20260507231402 6 63 0.0 1.6 0.00 0.03 0.00 87 1014.1
20260507231302 6 63 0.0 1.6 0.00 0.03 0.00 87 1014.1
20260507231202 6 63 0.0 1.6 0.00 0.03 0.00 87 1014.1
20260507231102 6 63 0.0 1.6 0.00 0.03 0.00 87 1014.2
20260507231003 6 63 0.0 1.6 0.00 0.03 0.00 87 1014.1
20260507230903 6 63 0.0 1.6 0.00 0.03 0.00 87 1014.1
20260507230803 6 63 0.0 1.6 0.00 0.03 0.00 87 1014.1
20260507230702 6 63 0.0 1.6 0.00 0.03 0.00 87 1014.2
20260507230602 6 63 0.0 1.6 0.00 0.03 0.00 87 1014.1
20260507230502 6 63 0.0 1.6 0.00 0.03 0.00 86 1014.1
20260507230402 6 63 0.0 1.6 0.00 0.03 0.00 86 1014.1
20260507230302 6 63 0.0 1.6 0.00 0.03 0.00 86 1014.1
20260507230202 6 63 0.0 3.2 0.00 0.03 0.00 86 1014.1
20260507230101 6 63 0.0 3.2 0.00 0.03 0.00 85 1014.1
20260507230001 6 63 0.0 3.2 0.00 0.03 0.00 86 1013.9
20260507225901 6 63 1.6 3.2 0.00 0.03 0.00 86 1013.9
20260507225848 6 63 1.6 3.2 0.00 0.03 0.00 86 1014.1
20260507225844 6 63 1.6 3.2 0.00 0.03 0.00 86 1014.1
20260507225840 6 63 1.6 3.2 0.00 0.03 0.00 86 1014.1
20260507225601 6 63 1.6 3.2 0.00 0.03 0.00 86 1014.1
20260507225501 6 63 1.6 3.2 0.00 0.03 0.00 86 1014.1
20260507225401 7 63 1.6 3.2 0.00 0.03 0.00 86 1014.1
20260507225301 7 63 1.6 3.2 0.00 0.03 0.00 86 1014.1
20260507225201 7 63 1.6 3.2 0.00 0.03 0.00 86 1014.2
20260507225100 7 63 1.6 3.2 0.00 0.03 0.00 86 1014.1
20260507225001 7 63 1.6 3.2 0.00 0.03 0.00 86 1014.1
20260507224901 7 63 1.6 3.2 0.00 0.03 0.00 86 1014.1
20260507224853 7 65 0.0 3.2 0.00 0.03 0.00 86 1014.1
20260507224844 7 63 1.6 3.2 0.00 0.03 0.00 86 1014.1
20260507224840 7 63 0.0 3.2 0.00 0.03 0.00 86 1014.1
20260507224601 7 65 0.0 3.2 0.00 0.03 0.00 86 1014.1
20260507224501 7 65 0.0 3.2 0.00 0.03 0.00 86 1014.1
20260507224401 7 65 0.0 3.2 0.00 0.03 0.00 86 1013.9
20260507224347 7 65 0.0 3.2 0.00 0.03 0.00 86 1014.1
20260507224342 7 65 0.0 3.2 0.00 0.03 0.00 86 1013.9
20260507224339 7 65 0.0 3.2 0.00 0.03 0.00 86 1013.9
20260507224101 7 65 0.0 3.2 0.00 0.03 0.00 86 1014.1
20260507224001 7 66 0.0 3.2 0.00 0.03 0.00 86 1013.9
20260507223901 7 66 0.0 3.2 0.00 0.03 0.00 86 1013.9
20260507223801 7 66 0.0 3.2 0.00 0.03 0.00 86 1013.9
20260507223700 7 66 0.0 3.2 0.00 0.03 0.00 86 1013.9
20260507223600 7 66 0.0 3.2 0.00 0.03 0.00 86 1013.9
20260507223500 7 66 0.0 3.2 0.00 0.03 0.00 86 1013.9
20260507223400 7 66 0.0 3.2 0.00 0.03 0.00 86 1013.9
20260507223300 7 66 0.0 3.2 0.00 0.03 0.00 86 1013.9
20260507223200 7 66 0.0 3.2 0.00 0.03 0.00 85 1013.9
20260507223101 7 66 0.0 3.2 0.00 0.03 0.00 85 1013.8
20260507223001 7 68 0.0 3.2 0.00 0.03 0.00 85 1013.8
20260507222901 7 68 0.0 3.2 0.00 0.03 0.00 85 1013.8
20260507222852 7 71 0.0 3.2 0.00 0.03 0.00 85 1013.9
20260507222845 7 70 0.0 3.2 0.00 0.03 0.00 85 1013.8
20260507222841 7 70 0.0 3.2 0.00 0.03 0.00 85 1013.9
20260507222600 7 71 0.0 3.2 0.00 0.03 0.00 85 1013.9
20260507222501 7 71 0.0 3.2 0.00 0.03 0.00 85 1013.9
20260507222401 7 71 0.0 3.2 0.00 0.03 0.00 84 1013.9
20260507222301 7 71 0.0 4.8 0.00 0.03 0.00 84 1013.9
20260507222201 8 71 1.6 4.8 0.00 0.03 0.00 84 1013.9
20260507222101 8 71 1.6 4.8 0.00 0.03 0.00 84 1013.9
20260507222001 8 71 1.6 4.8 0.00 0.03 0.00 84 1014.1
20260507221901 8 71 1.6 4.8 0.00 0.03 0.00 84 1014.1
20260507221852 8 71 3.2 4.8 0.00 0.03 0.00 84 1013.9
20260507221845 8 71 1.6 4.8 0.00 0.03 0.00 84 1013.9
20260507221841 8 71 3.2 4.8 0.00 0.03 0.00 84 1013.9
20260507221601 8 71 3.2 4.8 0.00 0.03 0.00 84 1013.9
20260507221501 8 71 3.2 4.8 0.00 0.03 0.00 84 1014.1
20260507221401 8 71 3.2 4.8 0.00 0.03 0.00 84 1013.9
20260507221350 8 71 1.6 4.8 0.00 0.03 0.00 84 1014.1
20260507221344 8 71 3.2 4.8 0.00 0.03 0.00 84 1013.9
20260507221340 8 71 1.6 4.8 0.00 0.03 0.00 84 1014.1
20260507221100 8 71 1.6 4.8 0.00 0.03 0.00 84 1014.1
20260507221000 8 67 1.6 4.8 0.00 0.03 0.00 84 1014.1
20260507220900 8 65 1.6 4.8 0.00 0.03 0.00 83 1014.1
20260507220800 8 59 1.6 4.8 0.00 0.03 0.00 83 1014.1
20260507220700 8 58 0.0 4.8 0.00 0.03 0.00 83 1014.1
20260507220628 8 57 0.0 3.2 0.00 0.03 0.00 83 1014.1
20260507220601 8 57 0.0 3.2 0.00 0.03 0.00 83 1014.1
20260507220500 8 57 0.0 1.6 0.00 0.03 0.00 83 1014.1
20260507220400 8 57 0.0 1.6 0.00 0.03 0.00 83 1014.1
20260507220300 8 57 0.0 1.6 0.00 0.03 0.00 83 1014.1
20260507220201 8 57 1.6 3.2 0.00 0.03 0.00 83 1014.1
20260507220124 8 57 1.6 3.2 0.00 0.03 0.03 83 1013.9
20260507220117 8 57 1.6 3.2 0.00 0.03 0.00 83 1014.1
20260507220109 8 57 1.6 3.2 0.00 0.03 0.00 83 1014.1
20260507220105 8 57 1.6 3.2 0.00 0.03 0.03 83 1014.1
20260507215845 8 57 1.6 3.2 0.00 0.03 0.03 83 1014.1
20260507215841 8 57 1.6 3.2 0.00 0.03 0.03 83 1013.9
20260507215601 8 57 1.6 3.2 0.00 0.03 0.03 83 1013.9
20260507215501 8 57 1.6 3.2 0.00 0.03 0.03 83 1013.9
20260507215358 8 57 1.6 3.2 0.00 0.03 0.03 83 1013.9
20260507215255 8 57 1.6 3.2 0.00 0.03 0.03 83 1013.9
20260507215129 8 57 0.0 3.2 0.00 0.03 0.03 83 1013.9
20260507215055 8 57 0.0 3.2 0.00 0.03 0.03 83 1013.9
20260507214954 8 57 0.0 3.2 0.00 0.03 0.03 83 1013.9
20260507214853 8 57 0.0 3.2 0.00 0.03 0.03 83 1013.9
20260507214843 8 57 0.0 1.6 0.00 0.03 0.03 83 1013.9
20260507214839 9 57 0.0 1.6 0.00 0.03 0.03 83 1013.9
20260507214551 8 57 0.0 1.6 0.00 0.03 0.03 83 1013.9
20260507214448 9 57 0.0 1.6 0.00 0.03 0.03 83 1013.9
20260507214348 9 57 0.0 1.6 0.00 0.03 0.03 83 1013.9
20260507214344 9 57 0.0 1.6 0.00 0.03 0.03 83 1013.9
20260507214340 9 57 0.0 1.6 0.00 0.03 0.03 83 1013.9
20260507214045 9 57 0.0 1.6 0.00 0.03 0.03 83 1013.8
20260507213943 9 57 0.0 1.6 0.00 0.03 0.03 83 1013.8
20260507213837 9 57 0.0 1.6 0.00 0.03 0.03 83 1013.8
20260507213738 9 57 0.0 1.6 0.00 0.03 0.03 83 1013.8
20260507213628 9 57 0.0 1.6 0.00 0.03 0.03 83 1013.8
20260507213535 9 57 0.0 1.6 0.00 0.03 0.03 83 1013.8
20260507213434 9 57 0.0 1.6 0.00 0.03 0.03 83 1013.8
20260507213329 9 57 0.0 0.0 0.00 0.03 0.03 83 1013.8
20260507213229 9 57 0.0 1.6 0.00 0.03 0.03 83 1013.8
20260507213129 9 57 0.0 3.2 0.00 0.03 0.03 84 1013.8
20260507213030 9 57 0.0 3.2 0.00 0.03 0.03 84 1013.8
20260507212929 9 57 0.0 4.8 0.00 0.03 0.03 84 1013.8
20260507212849 9 57 0.0 4.8 0.00 0.03 0.03 84 1013.8
20260507212845 9 57 0.0 4.8 0.00 0.03 0.03 84 1013.8
20260507212841 9 57 0.0 4.8 0.00 0.03 0.03 84 1013.9
20260507212529 9 57 0.0 4.8 0.00 0.03 0.03 84 1013.9
20260507212429 9 57 0.0 4.8 0.00 0.03 0.03 84 1013.8
20260507212329 9 57 0.0 4.8 0.00 0.03 0.03 84 1013.8
20260507212229 9 57 0.0 4.8 0.00 0.03 0.03 84 1013.8
20260507212128 9 57 0.0 4.8 0.00 0.03 0.03 84 1013.8
20260507212029 9 57 0.0 4.8 0.00 0.03 0.03 84 1013.8
20260507211929 9 40 0.0 3.2 0.00 0.03 0.03 84 1013.8
20260507211829 9 40 0.0 3.2 0.00 0.03 0.03 84 1013.8
20260507211729 9 40 0.0 3.2 0.00 0.03 0.03 84 1013.8
20260507211629 9 40 0.0 3.2 0.00 0.03 0.03 84 1013.8
20260507211529 9 40 0.0 3.2 0.00 0.03 0.03 84 1013.9
20260507211429 9 39 0.0 3.2 0.00 0.03 0.03 84 1013.9
20260507211348 9 35 0.0 3.2 0.00 0.03 0.03 84 1013.9
20260507211344 9 34 0.0 3.2 0.00 0.03 0.03 84 1013.9
20260507211340 9 34 0.0 3.2 0.00 0.03 0.03 84 1014.1
20260507210928 9 34 0.0 3.2 0.00 0.03 0.03 84 1014.1
20260507210828 9 34 0.0 3.2 0.00 0.03 0.03 84 1014.1
20260507210728 9 34 0.0 3.2 0.00 0.03 0.03 84 1014.1
20260507210628 9 34 0.0 3.2 0.00 0.03 0.03 84 1014.1
20260507210529 9 34 0.0 1.6 0.00 0.03 0.03 84 1014.2
20260507210429 9 34 0.0 1.6 0.00 0.03 0.03 84 1014.2
20260507210330 9 34 0.0 1.6 0.00 0.03 0.03 84 1014.2
20260507210230 9 34 0.0 1.6 0.00 0.03 0.03 84 1014.2
20260507210129 9 34 0.0 1.6 0.00 0.03 0.03 84 1014.2
20260507210029 9 34 0.0 1.6 0.00 0.03 0.03 84 1014.2
20260507205929 9 34 0.0 1.6 0.00 0.03 0.03 84 1014.2
20260507205829 9 34 0.0 1.6 0.00 0.03 0.03 84 1014.3
20260507205729 9 34 0.0 1.6 0.00 0.03 0.03 84 1014.3
20260507205629 9 34 0.0 1.6 0.00 0.03 0.03 84 1014.3
20260507205529 9 34 0.0 1.6 0.00 0.03 0.03 84 1014.3
20260507205429 9 34 0.0 1.6 0.00 0.03 0.03 84 1014.3
20260507205348 9 34 0.0 1.6 0.00 0.03 0.03 84 1014.3
20260507205344 9 34 0.0 1.6 0.00 0.03 0.03 84 1014.3
20260507205340 9 34 0.0 1.6 0.00 0.03 0.03 84 1014.3
20260507205029 9 34 0.0 1.6 0.00 0.03 0.03 84 1014.3
20260507204929 9 34 0.0 1.6 0.00 0.03 0.03 84 1014.3
20260507204829 9 34 0.0 1.6 0.00 0.03 0.03 84 1014.3
20260507204729 9 34 0.0 1.6 0.00 0.03 0.03 84 1014.3
20260507204629 9 34 0.0 1.6 0.00 0.03 0.03 84 1014.2
20260507204529 9 34 0.0 0.0 0.00 0.03 0.03 84 1014.2
20260507204429 9 34 0.0 0.0 0.00 0.03 0.03 84 1014.3
20260507204329 9 34 0.0 0.0 0.00 0.03 0.03 84 1014.3
20260507204228 9 34 0.0 0.0 0.00 0.03 0.03 84 1014.2
20260507204128 9 34 0.0 0.0 0.00 0.03 0.03 84 1014.2
20260507204028 9 34 0.0 0.0 0.00 0.03 0.03 83 1014.2
20260507203929 9 34 0.0 0.0 0.00 0.03 0.03 83 1014.3
20260507203829 9 34 0.0 0.0 0.00 0.03 0.03 83 1014.2
20260507203728 9 34 0.0 0.0 0.00 0.03 0.03 83 1014.3
20260507203628 9 34 0.0 0.0 0.00 0.03 0.03 83 1014.3
20260507203528 9 34 0.0 0.0 0.00 0.03 0.03 83 1014.2
20260507203429 9 34 0.0 0.0 0.00 0.03 0.03 83 1014.2
20260507203329 9 34 0.0 0.0 0.00 0.03 0.03 83 1014.2
20260507203229 9 34 0.0 0.0 0.00 0.03 0.03 82 1014.2
20260507203130 9 34 0.0 0.0 0.00 0.03 0.03 82 1014.2
20260507203029 9 34 0.0 0.0 0.00 0.03 0.03 82 1014.2
20260507202929 9 34 0.0 0.0 0.00 0.03 0.03 82 1014.2
20260507202829 9 34 0.0 0.0 0.00 0.03 0.03 83 1014.2
20260507202729 9 34 0.0 0.0 0.00 0.03 0.03 82 1014.2
20260507202629 9 34 0.0 0.0 0.00 0.03 0.03 82 1014.2
20260507202529 9 34 0.0 0.0 0.00 0.03 0.03 82 1014.2
20260507202429 9 34 0.0 0.0 0.00 0.03 0.03 82 1014.1
20260507202329 9 34 0.0 0.0 0.00 0.03 0.03 82 1014.1
20260507202229 9 34 0.0 0.0 0.00 0.03 0.03 82 1014.1
20260507202129 9 34 0.0 0.0 0.00 0.03 0.03 82 1014.2
20260507202029 9 34 0.0 0.0 0.00 0.03 0.03 81 1014.1
20260507201929 9 34 0.0 0.0 0.00 0.03 0.03 81 1014.2
20260507201829 9 34 0.0 0.0 0.00 0.03 0.03 81 1014.1
20260507201729 9 34 0.0 0.0 0.00 0.03 0.03 82 1014.1
20260507201628 9 34 0.0 0.0 0.00 0.03 0.03 81 1014.1
20260507201528 9 34 0.0 0.0 0.00 0.03 0.03 81 1014.1
20260507201429 9 34 0.0 0.0 0.00 0.03 0.03 81 1014.1
20260507201329 9 34 0.0 0.0 0.00 0.03 0.03 81 1014.1
20260507201229 9 34 0.0 0.0 0.00 0.03 0.03 81 1014.1
20260507201129 9 34 0.0 3.2 0.00 0.03 0.03 81 1014.1
20260507201029 9 34 0.0 3.2 0.00 0.03 0.03 81 1014.1
20260507200933 9 34 0.0 3.2 0.00 0.03 0.03 81 1014.1
20260507200847 9 34 0.0 3.2 0.00 0.03 0.03 81 1013.9
20260507200843 9 34 0.0 3.2 0.00 0.03 0.03 81 1013.9
20260507200838 9 34 0.0 3.2 0.00 0.03 0.03 81 1013.9
20260507200529 9 34 0.0 3.2 0.00 0.03 0.03 80 1013.9
20260507200429 9 34 0.0 3.2 0.00 0.03 0.03 80 1013.9
20260507200329 9 34 0.0 3.2 0.00 0.03 0.03 80 1013.9
20260507200230 9 34 0.0 3.2 0.00 0.03 0.03 80 1013.9
20260507200129 9 34 0.0 3.2 0.00 0.03 0.03 80 1013.9
20260507200029 10 33 0.0 3.2 0.00 0.03 0.03 80 1013.9
20260507195929 10 33 0.0 3.2 0.00 0.03 0.03 80 1013.9
20260507195829 10 33 0.0 3.2 0.00 0.03 0.03 80 1013.9
20260507195729 10 33 0.0 3.2 0.00 0.03 0.03 80 1013.9
20260507195629 10 33 0.0 3.2 0.00 0.03 0.03 80 1013.8
20260507195529 10 33 0.0 3.2 0.00 0.03 0.03 80 1013.8
20260507195429 10 33 0.0 3.2 0.00 0.03 0.03 80 1013.8
20260507195329 10 33 0.0 3.2 0.00 0.03 0.03 80 1013.8
20260507195229 10 33 0.0 3.2 0.00 0.03 0.03 80 1013.7
20260507195129 10 33 0.0 3.2 0.00 0.03 0.03 80 1013.8
20260507195029 10 33 0.0 3.2 0.00 0.03 0.03 80 1013.7
20260507194929 10 32 0.0 0.0 0.00 0.03 0.03 80 1013.7
20260507194849 10 32 0.0 0.0 0.00 0.03 0.03 80 1013.7
20260507194844 10 32 0.0 0.0 0.00 0.03 0.03 80 1013.6
20260507194840 10 32 0.0 0.0 0.00 0.03 0.03 80 1013.6
20260507194529 10 32 0.0 0.0 0.00 0.03 0.03 80 1013.6
20260507194429 10 32 0.0 0.0 0.00 0.03 0.03 80 1013.6
20260507194328 10 32 0.0 0.0 0.00 0.03 0.03 79 1013.6
20260507194228 10 32 0.0 0.0 0.00 0.03 0.03 79 1013.6
20260507194129 10 32 0.0 0.0 0.00 0.03 0.03 79 1013.6
20260507194029 10 32 0.0 0.0 0.00 0.03 0.03 79 1013.6
20260507193929 10 32 0.0 0.0 0.00 0.03 0.03 79 1013.5
20260507193829 10 32 0.0 0.0 0.00 0.03 0.03 79 1013.5
20260507193730 10 32 0.0 0.0 0.00 0.03 0.03 79 1013.6
20260507193628 10 32 0.0 0.0 0.00 0.03 0.03 79 1013.6
20260507193528 10 32 0.0 0.0 0.00 0.03 0.03 79 1013.5
20260507193428 10 32 0.0 0.0 0.00 0.03 0.03 79 1013.5
20260507193329 10 32 0.0 0.0 0.00 0.03 0.03 79 1013.5
20260507193229 10 32 0.0 0.0 0.00 0.03 0.03 79 1013.5
20260507193127 10 32 0.0 0.0 0.00 0.03 0.03 79 1013.5
20260507193024 10 32 0.0 0.0 0.00 0.03 0.03 79 1013.5
20260507192923 10 32 0.0 0.0 0.00 0.03 0.03 79 1013.5
20260507192823 10 32 0.0 0.0 0.00 0.03 0.03 79 1013.5
20260507192722 10 32 0.0 1.6 0.00 0.03 0.03 79 1013.5
20260507192620 10 32 0.0 1.6 0.00 0.03 0.03 78 1013.5
20260507192518 10 32 0.0 1.6 0.00 0.03 0.03 78 1013.4
20260507192419 10 32 0.0 1.6 0.00 0.03 0.03 78 1013.5
20260507192317 10 32 0.0 1.6 0.00 0.03 0.03 78 1013.4
20260507192217 10 32 0.0 1.6 0.00 0.03 0.03 78 1013.5
20260507192115 10 32 1.6 3.2 0.00 0.03 0.03 78 1013.4
20260507192012 10 32 1.6 3.2 0.00 0.03 0.03 78 1013.5
20260507191913 10 32 1.6 3.2 0.00 0.03 0.03 78 1013.5
20260507191811 10 32 1.6 3.2 0.00 0.03 0.03 78 1013.4
20260507191711 10 32 1.6 3.2 0.00 0.03 0.03 77 1013.4
20260507191610 10 32 1.6 3.2 0.00 0.03 0.03 77 1013.5
20260507191509 10 32 1.6 3.2 0.00 0.03 0.03 77 1013.4
20260507191409 10 32 1.6 3.2 0.00 0.03 0.03 77 1013.5
20260507191309 10 32 1.6 3.2 0.00 0.03 0.03 77 1013.4
20260507191209 10 32 1.6 3.2 0.00 0.03 0.03 76 1013.4
20260507191129 10 32 1.6 3.2 0.00 0.03 0.03 76 1013.4
20260507191107 10 32 1.6 4.8 0.00 0.03 0.03 76 1013.4
20260507191007 10 31 1.6 4.8 0.00 0.03 0.03 76 1013.3
20260507190907 11 31 1.6 4.8 0.00 0.03 0.03 76 1013.3
20260507190807 11 31 1.6 6.4 0.00 0.03 0.03 76 1013.3
20260507190707 11 30 1.6 6.4 0.00 0.03 0.03 77 1013.3
20260507190604 11 30 1.6 6.4 0.00 0.03 0.03 77 1013.3
20260507190505 11 31 1.6 6.4 0.00 0.03 0.03 77 1013.2
20260507190401 11 31 1.6 6.4 0.00 0.03 0.03 76 1013.2
20260507190301 11 31 3.2 8.0 0.00 0.03 0.03 76 1013.2
20260507190201 11 30 3.2 8.0 0.00 0.03 0.03 76 1013.2
20260507190129 11 30 3.2 8.0 0.00 0.03 0.03 76 1013.1
20260507190002 11 31 3.2 8.0 0.00 0.03 0.03 76 1013.1
20260507185901 11 30 3.2 8.0 0.00 0.03 0.03 76 1013.1
20260507185801 11 30 4.8 8.0 0.00 0.03 0.03 76 1013.1
20260507185701 11 30 4.8 8.0 0.00 0.03 0.03 76 1013.0
20260507185629 11 29 4.8 8.0 0.00 0.03 0.03 76 1013.0
20260507185601 11 21 4.8 8.0 0.00 0.03 0.03 76 1013.0
20260507185501 11 14 4.8 8.0 0.00 0.03 0.03 76 1013.0
20260507185401 11 22 4.8 8.0 0.00 0.03 0.03 75 1013.0
20260507185301 11 22 4.8 8.0 0.00 0.03 0.03 75 1012.9
20260507185202 11 24 4.8 8.0 0.00 0.03 0.03 75 1012.9
20260507185129 11 31 4.8 8.0 0.00 0.03 0.03 75 1012.9
20260507185101 11 24 4.8 8.0 0.00 0.03 0.03 75 1012.9
20260507185000 11 24 4.8 8.0 0.00 0.03 0.03 75 1012.9
20260507184900 11 11 4.8 8.0 0.00 0.03 0.03 75 1012.9
20260507184801 11 355 4.8 8.0 0.00 0.03 0.03 75 1012.9
20260507184701 11 13 3.2 8.0 0.00 0.03 0.03 75 1012.9
20260507184629 11 13 4.8 8.0 0.00 0.03 0.03 75 1012.9
20260507184600 11 14 4.8 8.0 0.00 0.03 0.03 75 1012.9
20260507184500 11 5 4.8 9.7 0.00 0.03 0.03 75 1012.9
20260507184400 11 0 4.8 12.9 0.00 0.03 0.03 74 1012.9
20260507184300 11 0 4.8 12.9 0.00 0.03 0.03 74 1012.9
20260507184200 11 0 4.8 12.9 0.00 0.03 0.03 74 1012.9
20260507184128 11 0 4.8 12.9 0.00 0.03 0.03 74 1012.8
20260507184101 11 355 4.8 12.9 0.00 0.03 0.03 74 1012.8
20260507184001 11 14 4.8 12.9 0.00 0.03 0.03 74 1012.8
20260507183901 11 15 4.8 12.9 0.00 0.03 0.03 74 1012.8
20260507183801 11 16 4.8 12.9 0.00 0.03 0.03 74 1012.8
20260507183701 11 12 4.8 12.9 0.00 0.03 0.03 74 1012.8
20260507183600 11 5 4.8 12.9 0.00 0.03 0.03 74 1012.8
20260507183455 11 28 4.8 12.9 0.00 0.03 0.03 74 1012.8
20260507183355 11 5 4.8 14.5 0.00 0.03 0.03 74 1012.8
20260507183255 11 23 4.8 14.5 0.00 0.03 0.03 74 1012.8
20260507183129 11 22 4.8 14.5 0.00 0.03 0.03 74 1012.8
20260507183054 11 24 4.8 14.5 0.00 0.03 0.03 74 1012.8
20260507182951 11 347 4.8 14.5 0.00 0.03 0.03 73 1012.7
20260507182858 12 49 4.8 14.5 0.00 0.03 0.03 73 1012.7
20260507182854 12 19 6.4 14.5 0.00 0.03 0.03 73 1012.7
20260507182845 12 5 6.4 14.5 0.00 0.03 0.03 73 1012.7
20260507182841 12 5 4.8 14.5 0.00 0.03 0.03 73 1012.7
20260507182549 12 0 6.4 14.5 0.00 0.03 0.03 73 1012.7
20260507182445 12 49 4.8 14.5 0.00 0.03 0.03 73 1012.7
20260507182343 12 340 6.4 11.3 0.00 0.03 0.03 73 1012.6
20260507182242 12 336 6.4 12.9 0.00 0.03 0.03 73 1012.6
20260507182143 12 14 4.8 12.9 0.00 0.03 0.03 73 1012.6
20260507182129 12 38 4.8 12.9 0.00 0.03 0.03 73 1012.6
20260507182043 12 355 4.8 12.9 0.00 0.03 0.03 73 1012.6
20260507181937 12 34 4.8 12.9 0.00 0.03 0.03 73 1012.6
20260507181858 12 54 6.4 12.9 0.00 0.03 0.03 72 1012.6
20260507181853 12 20 4.8 12.9 0.00 0.03 0.03 72 1012.5
20260507181845 12 27 4.8 12.9 0.00 0.03 0.03 72 1012.6
20260507181840 12 25 6.4 12.9 0.00 0.03 0.03 72 1012.6
20260507181537 12 52 4.8 12.9 0.00 0.03 0.03 72 1012.5
20260507181433 12 14 4.8 12.9 0.00 0.03 0.03 72 1012.5
20260507181333 12 34 4.8 12.9 0.00 0.03 0.03 72 1012.6
20260507181233 12 0 4.8 12.9 0.00 0.03 0.03 72 1012.5
20260507181129 12 11 4.8 12.9 0.00 0.03 0.03 73 1012.6
20260507181030 12 19 4.8 12.9 0.00 0.03 0.03 72 1012.6
20260507180930 12 31 4.8 12.9 0.00 0.03 0.03 72 1012.5
20260507180831 12 28 4.8 12.9 0.00 0.03 0.03 72 1012.5
20260507180730 12 319 4.8 11.3 0.00 0.03 0.03 73 1012.5
20260507180632 12 26 4.8 11.3 0.00 0.03 0.03 72 1012.5
20260507180628 12 55 4.8 11.3 0.00 0.03 0.03 72 1012.5
20260507180529 12 54 4.8 11.3 0.00 0.03 0.03 72 1012.4
20260507180429 12 60 4.8 11.3 0.00 0.03 0.03 72 1012.4
20260507180329 12 5 4.8 11.3 0.00 0.03 0.03 72 1012.4
20260507180229 12 17 4.8 11.3 0.00 0.03 0.03 72 1012.4
20260507180129 12 14 4.8 11.3 0.00 0.03 0.03 71 1012.4
20260507180029 12 18 4.8 11.3 0.00 0.03 0.03 71 1012.4
20260507175928 13 33 4.8 11.3 0.00 0.03 0.03 71 1012.4
20260507175853 13 12 4.8 11.3 0.00 0.03 0.03 71 1012.4
20260507175844 13 12 4.8 11.3 0.00 0.03 0.03 71 1012.4
20260507175840 13 355 4.8 9.7 0.00 0.03 0.03 71 1012.4
20260507175529 13 355 3.2 11.3 0.00 0.03 0.03 71 1012.4
20260507175429 13 36 4.8 11.3 0.00 0.03 0.03 71 1012.4
20260507175353 13 51 4.8 11.3 0.00 0.03 0.03 71 1012.4
20260507175345 13 35 4.8 16.1 0.00 0.03 0.03 71 1012.4
20260507175341 13 38 4.8 16.1 0.00 0.03 0.03 70 1012.4
20260507175029 13 23 4.8 16.1 0.00 0.03 0.03 70 1012.3
20260507174929 13 19 6.4 16.1 0.00 0.03 0.03 71 1012.3
20260507174829 13 19 6.4 16.1 0.00 0.03 0.03 70 1012.3
20260507174729 13 19 6.4 16.1 0.00 0.03 0.03 70 1012.3
20260507174628 13 355 6.4 16.1 0.00 0.03 0.03 70 1012.3
20260507174529 13 42 8.0 16.1 0.00 0.03 0.03 70 1012.3
20260507174429 13 44 8.0 16.1 0.00 0.03 0.03 70 1012.3
20260507174329 13 35 6.4 16.1 0.00 0.03 0.03 70 1012.3
20260507174228 13 36 6.4 14.5 0.00 0.03 0.03 70 1012.3
20260507174128 13 54 8.0 14.5 0.00 0.03 0.03 70 1012.3
20260507174028 13 53 8.0 14.5 0.00 0.03 0.03 70 1012.3
20260507173928 13 14 8.0 14.5 0.00 0.03 0.03 70 1012.3
20260507173853 13 29 6.4 14.5 0.00 0.03 0.03 70 1012.3
20260507173845 13 11 6.4 14.5 0.00 0.03 0.03 70 1012.3
20260507173840 13 0 6.4 14.5 0.00 0.03 0.03 70 1012.1
20260507173529 13 342 6.4 14.5 0.00 0.03 0.03 69 1012.1
20260507173429 13 5 6.4 14.5 0.00 0.03 0.03 69 1012.1
20260507173328 13 11 6.4 12.9 0.00 0.03 0.03 69 1012.1
20260507173228 13 17 6.4 12.9 0.00 0.03 0.03 69 1012.1
20260507173128 13 349 6.4 12.9 0.00 0.03 0.03 69 1012.1
20260507173124 13 350 6.4 12.9 0.00 0.03 0.03 69 1012.1
20260507173028 13 5 6.4 12.9 0.00 0.03 0.03 69 1012.1
20260507172929 13 350 4.8 12.9 0.00 0.03 0.03 68 1012.1
20260507172846 13 22 4.8 12.9 0.00 0.03 0.03 68 1012.1
20260507172833 13 52 4.8 12.9 0.00 0.03 0.03 69 1012.1
20260507172829 13 51 4.8 12.9 0.00 0.03 0.03 69 1012.1
20260507172529 13 5 4.8 12.9 0.00 0.03 0.03 69 1012.1
20260507172428 13 5 4.8 9.7 0.00 0.03 0.03 69 1012.1
20260507172328 13 23 4.8 9.7 0.00 0.03 0.03 69 1012.1
20260507172228 13 355 4.8 9.7 0.00 0.03 0.03 69 1012.1
20260507172129 13 355 3.2 9.7 0.00 0.03 0.03 69 1012.1
20260507172113 13 334 3.2 8.0 0.00 0.03 0.03 69 1012.1
20260507172029 13 355 3.2 8.0 0.00 0.03 0.03 69 1012.1
20260507171929 13 324 3.2 8.0 0.00 0.03 0.03 68 1012.1
20260507171829 13 355 3.2 8.0 0.00 0.03 0.03 68 1012.1
20260507171728 13 355 3.2 8.0 0.00 0.03 0.03 69 1012.1
20260507171629 13 355 4.8 8.0 0.00 0.03 0.03 69 1012.1
20260507171609 13 355 4.8 8.0 0.00 0.03 0.03 69 1012.1
20260507171529 13 299 4.8 9.7 0.00 0.03 0.03 69 1012.1
20260507171429 13 297 4.8 9.7 0.00 0.03 0.03 69 1012.1
20260507171329 13 336 4.8 11.3 0.00 0.03 0.03 69 1012.1
20260507171229 13 336 4.8 11.3 0.00 0.03 0.03 69 1012.1
20260507171129 13 342 6.4 14.5 0.00 0.03 0.03 69 1012.1
20260507171108 13 342 6.4 14.5 0.00 0.03 0.03 69 1012.1
20260507171029 13 342 6.4 14.5 0.00 0.03 0.03 68 1012.1
20260507170929 13 342 6.4 14.5 0.00 0.03 0.03 69 1012.1
20260507170828 13 338 6.4 14.5 0.00 0.03 0.03 69 1012.1
20260507170733 13 349 6.4 14.5 0.00 0.03 0.03 68 1012.1
20260507170629 13 36 6.4 14.5 0.00 0.03 0.03 68 1012.1
20260507170608 13 38 6.4 14.5 0.00 0.03 0.03 68 1012.1
20260507170528 13 350 4.8 14.5 0.00 0.03 0.03 68 1012.1
20260507170428 13 327 6.4 14.5 0.00 0.03 0.03 68 1012.1
20260507170328 13 17 6.4 14.5 0.00 0.03 0.03 67 1012.1
20260507170231 13 346 4.8 14.5 0.00 0.03 0.03 67 1012.1
20260507170129 13 332 4.8 12.9 0.00 0.03 0.03 67 1012.1
20260507170108 13 346 4.8 12.9 0.00 0.03 0.03 67 1012.1
20260507170029 13 22 4.8 12.9 0.00 0.03 0.03 67 1012.0
20260507165928 13 5 4.8 12.9 0.00 0.03 0.03 67 1012.1
20260507165828 13 327 4.8 12.9 0.00 0.03 0.03 67 1012.1
20260507165728 13 311 4.8 12.9 0.00 0.03 0.03 67 1012.0
20260507165628 13 348 6.4 12.9 0.00 0.03 0.03 67 1012.0
20260507165609 13 11 6.4 12.9 0.00 0.03 0.03 67 1012.0
20260507165528 13 11 6.4 12.9 0.00 0.03 0.03 67 1012.0
20260507165429 13 350 6.4 12.9 0.00 0.03 0.03 67 1012.0
20260507165329 13 355 6.4 12.9 0.00 0.03 0.03 66 1012.0
20260507165229 14 337 6.4 12.9 0.00 0.03 0.03 67 1012.0
20260507165129 14 350 6.4 12.9 0.00 0.03 0.03 66 1012.0
20260507165108 14 328 6.4 12.9 0.00 0.03 0.03 67 1012.0
20260507165029 14 350 6.4 12.9 0.00 0.03 0.03 67 1011.9
20260507164928 14 340 6.4 12.9 0.00 0.03 0.03 67 1012.0
20260507164828 14 301 6.4 12.9 0.00 0.03 0.03 66 1011.9
20260507164728 14 341 6.4 12.9 0.00 0.03 0.03 66 1011.9
20260507164629 14 10 6.4 12.9 0.00 0.03 0.03 66 1011.9
20260507164609 14 337 6.4 12.9 0.00 0.03 0.03 66 1011.9
20260507164529 14 355 6.4 12.9 0.00 0.03 0.03 66 1011.9
20260507164429 14 341 6.4 12.9 0.00 0.03 0.03 67 1011.9
20260507164328 14 316 6.4 14.5 0.00 0.03 0.03 66 1011.8
20260507164228 14 343 6.4 16.1 0.00 0.03 0.03 66 1011.8
20260507164108 14 306 6.4 17.7 0.00 0.03 0.03 66 1011.8
20260507164028 14 299 6.4 17.7 0.00 0.03 0.03 66 1011.8
20260507163928 14 28 6.4 17.7 0.00 0.03 0.03 66 1011.8
20260507163828 14 9 8.0 17.7 0.00 0.03 0.03 66 1011.8
20260507163728 14 5 8.0 17.7 0.00 0.03 0.03 66 1011.8
20260507163629 14 346 8.0 17.7 0.00 0.03 0.03 66 1011.8
20260507163608 14 355 8.0 17.7 0.00 0.03 0.03 66 1011.8
20260507163529 14 22 8.0 17.7 0.00 0.03 0.03 66 1011.8
20260507163429 14 342 8.0 17.7 0.00 0.03 0.03 66 1011.8
20260507163329 14 302 8.0 17.7 0.00 0.03 0.03 66 1011.8
20260507163229 14 338 8.0 17.7 0.00 0.03 0.03 66 1011.8
20260507163128 14 9 8.0 17.7 0.00 0.03 0.03 66 1011.7
20260507163109 14 34 8.0 17.7 0.00 0.03 0.03 66 1011.7
20260507163029 14 60 8.0 17.7 0.00 0.03 0.03 66 1011.8
20260507162929 14 9 8.0 17.7 0.00 0.03 0.03 66 1011.7
20260507162837 14 340 6.4 14.5 0.00 0.03 0.03 66 1011.8
20260507162833 14 20 6.4 17.7 0.00 0.03 0.03 66 1011.8
20260507162829 14 341 6.4 14.5 0.00 0.03 0.03 67 1011.8
20260507162821 14 62 6.4 14.5 0.00 0.03 0.03 66 1011.8
20260507162529 14 345 6.4 14.5 0.00 0.03 0.03 66 1011.7
20260507162429 14 355 8.0 16.1 0.00 0.03 0.03 66 1011.7
20260507162329 14 36 6.4 16.1 0.00 0.03 0.03 67 1011.8
20260507162229 14 311 6.4 16.1 0.00 0.03 0.03 67 1011.8
20260507162128 14 0 6.4 16.1 0.00 0.03 0.03 67 1011.8
20260507162108 14 5 6.4 16.1 0.00 0.03 0.03 67 1011.8
20260507162028 14 348 6.4 16.1 0.00 0.03 0.03 66 1011.8
20260507161928 14 341 6.4 16.1 0.00 0.03 0.03 67 1011.9
20260507161828 14 5 6.4 16.1 0.00 0.03 0.03 66 1011.8
20260507161729 14 338 6.4 16.1 0.00 0.03 0.03 67 1011.8
20260507161628 14 346 6.4 16.1 0.00 0.03 0.03 67 1011.8
20260507161602 14 355 6.4 16.1 0.00 0.03 0.03 67 1011.8
20260507161529 14 325 6.4 16.1 0.00 0.03 0.03 67 1011.8
20260507161429 14 337 6.4 14.5 0.00 0.03 0.03 67 1011.8
20260507161329 14 321 6.4 12.9 0.00 0.03 0.03 66 1011.8
20260507161229 14 321 6.4 14.5 0.00 0.03 0.03 66 1011.8
20260507161129 14 334 6.4 14.5 0.00 0.03 0.03 66 1011.8
20260507161102 14 322 6.4 14.5 0.00 0.03 0.03 66 1011.8
20260507161029 14 334 6.4 14.5 0.00 0.03 0.03 66 1011.8
20260507160929 14 340 6.4 14.5 0.00 0.03 0.03 67 1011.8
20260507160834 14 309 6.4 14.5 0.00 0.03 0.03 65 1011.8
20260507160828 14 339 6.4 14.5 0.00 0.03 0.03 66 1011.8
20260507160820 14 328 6.4 14.5 0.00 0.03 0.03 66 1011.8
20260507160812 14 329 6.4 14.5 0.00 0.03 0.03 66 1011.8
20260507160528 14 5 6.4 14.5 0.00 0.03 0.03 65 1011.8
20260507160428 14 22 6.4 14.5 0.00 0.03 0.03 66 1011.8
20260507160328 14 348 6.4 14.5 0.00 0.03 0.03 66 1011.8
20260507160228 14 23 6.4 14.5 0.00 0.03 0.03 66 1011.8
20260507160129 14 355 6.4 14.5 0.00 0.03 0.03 65 1011.8
20260507160100 14 14 6.4 14.5 0.00 0.03 0.03 66 1011.8
20260507160029 14 5 8.0 16.1 0.00 0.03 0.03 66 1011.8
20260507155929 14 346 8.0 16.1 0.00 0.03 0.03 65 1011.8
20260507155829 15 355 8.0 16.1 0.00 0.03 0.03 65 1011.9
20260507155728 15 333 8.0 17.7 0.00 0.03 0.03 65 1011.8
20260507155629 15 323 8.0 17.7 0.00 0.03 0.03 65 1011.8
20260507155600 15 337 8.0 17.7 0.00 0.03 0.03 65 1011.8
20260507155529 15 22 9.7 17.7 0.00 0.03 0.03 66 1011.8
20260507155429 15 312 9.7 17.7 0.00 0.03 0.03 65 1011.7
20260507155329 15 304 9.7 17.7 0.00 0.03 0.03 65 1011.7
20260507155228 15 338 11.3 19.3 0.00 0.03 0.03 64 1011.7
20260507155129 15 0 11.3 19.3 0.00 0.03 0.03 64 1011.7
20260507155101 15 328 11.3 19.3 0.00 0.03 0.03 64 1011.7
20260507155028 15 329 11.3 19.3 0.00 0.03 0.03 64 1011.7
20260507154928 15 320 11.3 19.3 0.00 0.03 0.03 64 1011.7
20260507154828 15 325 11.3 19.3 0.00 0.03 0.03 64 1011.8
20260507154728 15 309 11.3 19.3 0.00 0.03 0.03 63 1011.7
20260507154629 15 355 9.7 19.3 0.00 0.03 0.03 64 1011.7
20260507154600 15 355 9.7 19.3 0.00 0.03 0.03 63 1011.7
20260507154528 15 343 9.7 19.3 0.00 0.03 0.03 64 1011.7
20260507154429 15 342 9.7 19.3 0.00 0.03 0.03 63 1011.7
20260507154328 15 0 9.7 19.3 0.00 0.03 0.03 64 1011.8
20260507154230 15 355 9.7 20.9 0.00 0.03 0.03 65 1011.7
20260507154128 15 346 9.7 20.9 0.00 0.03 0.03 64 1011.7
20260507154102 15 346 9.7 20.9 0.00 0.03 0.03 63 1011.7
20260507154028 15 0 9.7 20.9 0.00 0.03 0.03 63 1011.7
20260507153928 15 340 9.7 20.9 0.00 0.03 0.03 62 1011.7
20260507153828 15 309 9.7 20.9 0.00 0.05 0.03 61 1011.7
20260507153728 15 319 9.7 20.9 0.00 0.05 0.03 63 1011.7
20260507153628 15 296 9.7 20.9 0.00 0.05 0.03 63 1011.8
20260507153601 15 294 9.7 20.9 0.00 0.05 0.03 62 1011.8
20260507153529 15 305 9.7 20.9 0.00 0.05 0.03 62 1011.8
20260507153429 15 290 9.7 20.9 0.00 0.05 0.03 63 1011.8
20260507153329 15 338 9.7 20.9 0.00 0.05 0.03 62 1011.7
20260507153324 15 291 9.7 16.1 0.00 0.05 0.03 63 1011.7
20260507153319 15 305 9.7 17.7 0.00 0.05 0.03 63 1011.7
20260507153315 15 305 9.7 16.1 0.00 0.05 0.03 64 1011.7
20260507153028 15 299 9.7 16.1 0.00 0.05 0.03 63 1011.7
20260507152928 15 311 9.7 16.1 0.00 0.05 0.03 63 1011.6
20260507152848 15 311 9.7 20.9 0.00 0.05 0.03 63 1011.6
20260507152829 15 283 8.0 16.1 0.00 0.05 0.03 64 1011.7
20260507152729 15 296 9.7 16.1 0.00 0.05 0.03 64 1011.7
20260507152634 15 313 9.7 16.1 0.00 0.05 0.03 63 1011.7
20260507152600 15 310 9.7 16.1 0.00 0.05 0.03 63 1011.7
20260507152529 15 302 9.7 20.9 0.00 0.05 0.03 63 1011.6
20260507152428 15 302 9.7 20.9 0.00 0.05 0.03 63 1011.7
20260507152328 15 311 9.7 20.9 0.00 0.05 0.03 63 1011.6
20260507152323 15 343 9.7 20.9 0.00 0.05 0.03 64 1011.6
20260507152319 15 304 9.7 20.9 0.00 0.05 0.03 65 1011.6
20260507152315 15 0 9.7 20.9 0.00 0.05 0.03 64 1011.6
20260507152028 15 321 9.7 20.9 0.00 0.05 0.03 64 1011.6
20260507151924 15 304 9.7 20.9 0.00 0.05 0.03 64 1011.6
20260507151824 15 333 8.0 20.9 0.00 0.05 0.03 64 1011.6
20260507151724 15 336 8.0 20.9 0.00 0.05 0.03 63 1011.6
20260507151626 15 304 8.0 20.9 0.00 0.05 0.03 65 1011.6
20260507151602 14 312 8.0 20.9 0.00 0.05 0.03 65 1011.6
20260507151524 14 326 6.4 19.3 0.00 0.05 0.03 64 1011.6
20260507151424 14 291 6.4 16.1 0.00 0.05 0.03 65 1011.7
20260507151324 14 306 6.4 16.1 0.00 0.05 0.03 65 1011.6
20260507151224 14 340 6.4 16.1 0.00 0.05 0.03 66 1011.7
20260507151124 14 269 6.4 14.5 0.00 0.05 0.03 66 1011.6
20260507151102 14 310 6.4 14.5 0.00 0.05 0.03 65 1011.6
20260507151025 14 280 6.4 14.5 0.00 0.05 0.03 65 1011.6
20260507150924 14 298 8.0 17.7 0.00 0.05 0.03 65 1011.7
20260507150833 15 294 9.7 17.7 0.00 0.05 0.03 64 1011.7
20260507150825 15 302 8.0 17.7 0.00 0.05 0.03 65 1011.7
20260507150821 15 309 8.0 17.7 0.00 0.05 0.03 64 1011.7
20260507150817 15 307 9.7 17.7 0.00 0.05 0.03 64 1011.7
20260507150525 15 310 9.7 19.3 0.00 0.05 0.03 64 1011.7
20260507150425 15 318 11.3 19.3 0.00 0.05 0.03 63 1011.7
20260507150324 15 321 11.3 20.9 0.00 0.05 0.03 63 1011.7
20260507150224 15 313 11.3 20.9 0.00 0.05 0.03 63 1011.7
20260507150124 15 302 11.3 20.9 0.00 0.05 0.03 62 1011.8
20260507150101 15 327 11.3 20.9 0.00 0.05 0.03 63 1011.8
20260507150018 15 299 11.3 20.9 0.00 0.05 0.03 63 1011.8
20260507145918 15 342 11.3 20.9 0.00 0.05 0.03 62 1011.7
20260507145831 15 335 9.7 20.9 0.00 0.05 0.03 62 1011.7
20260507145824 15 281 11.3 20.9 0.00 0.05 0.03 62 1011.8
20260507145820 15 321 9.7 20.9 0.00 0.05 0.03 62 1011.7
20260507145816 15 290 9.7 20.9 0.00 0.05 0.03 62 1011.7
20260507145514 15 315 9.7 20.9 0.00 0.05 0.03 62 1011.6
20260507145329 15 288 9.7 19.3 0.00 0.05 0.03 63 1011.8
20260507145324 15 281 9.7 19.3 0.00 0.05 0.03 63 1011.7
20260507145319 15 289 8.0 19.3 0.00 0.05 0.03 63 1011.7
20260507145315 15 341 9.7 19.3 0.00 0.05 0.03 63 1011.8
20260507145013 15 313 8.0 17.7 0.00 0.05 0.03 63 1011.6
20260507144912 15 309 9.7 17.7 0.00 0.05 0.03 63 1011.6
20260507144812 15 309 9.7 17.7 0.00 0.05 0.03 63 1011.6
20260507144708 15 311 9.7 19.3 0.00 0.05 0.03 64 1011.6
20260507144606 15 5 9.7 19.3 0.00 0.05 0.03 64 1011.6
20260507144601 15 313 9.7 19.3 0.00 0.05 0.03 64 1011.6
20260507144505 15 316 9.7 19.3 0.00 0.05 0.03 64 1011.6
20260507144403 15 329 9.7 19.3 0.00 0.05 0.03 65 1011.6
20260507144303 15 311 9.7 19.3 0.00 0.05 0.03 65 1011.6
20260507144202 15 301 9.7 19.3 0.00 0.05 0.03 65 1011.7
20260507144102 15 318 9.7 19.3 0.00 0.05 0.03 66 1011.6
20260507144057 15 329 9.7 19.3 0.00 0.05 0.03 66 1011.6
20260507144002 14 331 9.7 19.3 0.00 0.05 0.03 66 1011.6
20260507143902 14 319 9.7 19.3 0.00 0.05 0.03 65 1011.6
20260507143802 14 336 9.7 19.3 0.00 0.05 0.03 65 1011.6
20260507143702 14 298 8.0 19.3 0.00 0.05 0.03 65 1011.6
20260507143601 14 351 8.0 19.3 0.00 0.05 0.03 65 1011.6
20260507143552 14 293 9.7 19.3 0.00 0.05 0.03 65 1011.7
20260507143502 14 286 9.7 19.3 0.00 0.05 0.03 65 1011.7
20260507143401 14 328 9.7 19.3 0.00 0.05 0.03 65 1011.7
20260507143301 14 290 9.7 19.3 0.00 0.05 0.03 64 1011.7
20260507143201 14 344 9.7 19.3 0.00 0.05 0.03 65 1011.7
20260507143101 14 307 9.7 19.3 0.00 0.05 0.03 66 1011.7
20260507143048 14 292 9.7 19.3 0.00 0.05 0.03 66 1011.7
20260507143001 14 298 9.7 19.3 0.00 0.05 0.03 65 1011.7
20260507142801 14 331 9.7 19.3 0.00 0.05 0.03 65 1011.6
20260507142701 14 342 8.0 17.7 0.00 0.05 0.03 65 1011.6
20260507142601 14 305 8.0 17.7 0.00 0.05 0.03 65 1011.6
20260507142541 14 329 8.0 17.7 0.00 0.05 0.03 65 1011.6
20260507142500 14 335 8.0 17.7 0.00 0.05 0.03 66 1011.6
20260507142401 14 342 8.0 17.7 0.00 0.05 0.03 66 1011.6
20260507142301 14 313 8.0 17.7 0.00 0.05 0.03 66 1011.6
20260507142201 14 329 8.0 16.1 0.00 0.05 0.03 65 1011.7
20260507142105 14 298 8.0 16.1 0.00 0.05 0.03 65 1011.7
20260507142036 14 342 8.0 16.1 0.00 0.05 0.03 65 1011.7
20260507142001 14 326 8.0 14.5 0.00 0.05 0.03 65 1011.7
20260507141901 14 330 6.4 14.5 0.00 0.05 0.03 65 1011.7
20260507141809 14 247 8.0 14.5 0.00 0.05 0.03 64 1011.7
20260507141801 14 221 6.4 14.5 0.00 0.05 0.03 64 1011.7
20260507141757 14 282 8.0 14.5 0.00 0.05 0.03 64 1011.7
20260507141753 14 247 8.0 14.5 0.00 0.05 0.03 64 1011.7
20260507141501 14 247 8.0 14.5 0.00 0.05 0.03 64 1011.7
20260507141401 14 247 8.0 14.5 0.00 0.05 0.03 66 1011.8
20260507141300 14 274 8.0 14.5 0.00 0.05 0.03 65 1011.8
20260507141200 14 305 8.0 14.5 0.00 0.05 0.03 64 1011.7
20260507141102 14 320 8.0 14.5 0.00 0.05 0.03 65 1011.7
20260507141034 14 292 8.0 14.5 0.00 0.05 0.03 64 1011.7
20260507140958 14 323 8.0 14.5 0.00 0.05 0.03 64 1011.7
20260507140857 14 295 8.0 14.5 0.00 0.05 0.03 65 1011.7
20260507140756 14 294 8.0 14.5 0.00 0.05 0.03 65 1011.7
20260507140656 14 267 8.0 14.5 0.00 0.05 0.03 65 1011.7
20260507140550 14 254 8.0 14.5 0.00 0.05 0.03 65 1011.7
20260507140536 14 271 8.0 14.5 0.00 0.05 0.03 65 1011.7
20260507140451 14 247 8.0 14.5 0.00 0.05 0.03 65 1011.7
20260507140350 14 284 6.4 14.5 0.00 0.05 0.03 65 1011.7
20260507140250 14 273 6.4 14.5 0.00 0.05 0.03 66 1011.7
20260507140149 14 257 8.0 14.5 0.00 0.05 0.03 66 1011.8
20260507140046 14 304 6.4 14.5 0.00 0.05 0.03 66 1011.7
20260507140035 14 250 6.4 14.5 0.00 0.05 0.03 66 1011.7
20260507135946 14 335 8.0 14.5 0.00 0.05 0.03 66 1011.7
20260507135847 14 309 8.0 20.9 0.00 0.05 0.03 67 1011.7
20260507135744 14 325 8.0 20.9 0.00 0.05 0.03 66 1011.7
20260507135643 14 316 8.0 20.9 0.00 0.05 0.03 66 1011.7
20260507135538 14 261 8.0 20.9 0.00 0.05 0.03 66 1011.8
20260507135534 14 253 8.0 20.9 0.00 0.05 0.03 66 1011.8
20260507135438 14 314 8.0 20.9 0.00 0.05 0.03 66 1011.7
20260507135338 14 306 9.7 20.9 0.00 0.05 0.03 66 1011.8
20260507135238 14 275 9.7 20.9 0.00 0.05 0.03 66 1011.7
20260507135138 14 303 9.7 20.9 0.00 0.05 0.03 66 1011.8
20260507135034 14 293 9.7 20.9 0.00 0.05 0.03 66 1011.7
20260507134933 14 277 9.7 20.9 0.00 0.05 0.03 65 1011.9
20260507134833 14 340 9.7 17.7 0.00 0.05 0.03 65 1011.7
20260507134732 14 346 9.7 17.7 0.00 0.05 0.03 66 1011.7
20260507134631 14 283 9.7 17.7 0.00 0.05 0.03 66 1011.7
20260507134535 14 279 9.7 17.7 0.00 0.05 0.03 66 1011.7
20260507134530 14 325 9.7 17.7 0.00 0.05 0.03 66 1011.7
20260507134430 14 323 9.7 17.7 0.00 0.05 0.03 67 1011.7
20260507134330 14 288 9.7 17.7 0.00 0.05 0.03 66 1011.8
20260507134230 14 237 9.7 17.7 0.00 0.05 0.03 66 1011.8
20260507134130 14 290 8.0 17.7 0.00 0.05 0.03 67 1011.8
20260507134030 14 271 8.0 17.7 0.00 0.05 0.03 66 1011.8
20260507133929 14 323 8.0 17.7 0.00 0.05 0.03 66 1011.7
20260507133830 13 333 8.0 17.7 0.00 0.05 0.03 66 1011.7
20260507133801 14 285 8.0 17.7 0.00 0.05 0.03 67 1011.8
20260507133755 13 303 8.0 17.7 0.00 0.05 0.03 66 1011.8
20260507133751 14 301 8.0 17.7 0.00 0.05 0.03 66 1011.8
20260507133529 14 293 8.0 17.7 0.00 0.05 0.03 67 1011.8
20260507133429 14 258 8.0 17.7 0.00 0.05 0.03 67 1011.8
20260507133329 13 298 9.7 17.7 0.00 0.05 0.03 66 1011.8
20260507133229 14 266 9.7 17.7 0.00 0.05 0.03 66 1011.8
20260507133130 14 322 9.7 17.7 0.00 0.05 0.03 66 1011.9
20260507133036 14 298 9.7 17.7 0.00 0.05 0.03 66 1011.8
20260507133029 14 315 9.7 17.7 0.00 0.05 0.03 66 1011.8
20260507132929 14 310 8.0 17.7 0.00 0.05 0.03 66 1011.8
20260507132829 14 292 8.0 17.7 0.00 0.05 0.03 66 1011.8
20260507132729 14 290 8.0 17.7 0.00 0.05 0.03 66 1011.8
20260507132629 14 311 9.7 16.1 0.00 0.05 0.03 65 1011.8
20260507132533 14 346 8.0 17.7 0.00 0.05 0.03 66 1011.7
20260507132528 14 340 8.0 17.7 0.00 0.05 0.03 66 1011.7
20260507132428 14 314 9.7 17.7 0.00 0.05 0.03 65 1011.8
20260507132328 14 314 9.7 17.7 0.00 0.05 0.03 65 1011.8
20260507132229 14 290 9.7 17.7 0.00 0.05 0.03 65 1011.8
20260507132129 14 284 8.0 17.7 0.00 0.05 0.03 65 1011.8
20260507132028 14 320 9.7 17.7 0.00 0.05 0.03 65 1011.9
20260507131928 14 315 9.7 17.7 0.00 0.05 0.03 65 1011.8
20260507131828 14 298 9.7 17.7 0.00 0.05 0.03 64 1011.8
20260507131729 14 260 9.7 17.7 0.00 0.05 0.03 65 1011.8
20260507131629 14 281 8.0 17.7 0.00 0.05 0.03 67 1011.8
20260507131532 14 289 8.0 16.1 0.00 0.05 0.03 67 1011.8
20260507131528 14 288 8.0 16.1 0.00 0.05 0.03 67 1011.8
20260507131428 14 309 8.0 16.1 0.00 0.05 0.03 66 1011.8
20260507131228 14 313 8.0 16.1 0.00 0.05 0.03 69 1011.7
20260507131126 14 341 8.0 16.1 0.00 0.05 0.03 69 1011.7
20260507131026 14 350 8.0 16.1 0.00 0.05 0.03 69 1011.7
20260507130926 14 281 8.0 14.5 0.00 0.05 0.03 69 1011.7
20260507130826 13 338 8.0 14.5 0.00 0.05 0.03 68 1011.8
20260507130725 13 319 8.0 14.5 0.00 0.05 0.03 68 1011.8
20260507130620 13 269 8.0 20.9 0.00 0.05 0.03 67 1011.8
20260507130520 13 290 8.0 20.9 0.00 0.05 0.03 68 1011.8
20260507130420 13 309 8.0 20.9 0.00 0.05 0.03 67 1011.8
20260507130320 13 327 8.0 20.9 0.00 0.05 0.03 67 1011.8
20260507130220 13 282 8.0 20.9 0.00 0.05 0.03 69 1011.8
20260507130114 13 297 8.0 20.9 0.00 0.05 0.03 68 1011.8
20260507130029 13 305 8.0 20.9 0.00 0.05 0.03 70 1011.8
20260507130014 13 294 8.0 20.9 0.00 0.05 0.03 70 1011.8
20260507125914 13 300 8.0 20.9 0.00 0.05 0.03 70 1011.8
20260507125814 13 301 8.0 20.9 0.00 0.05 0.03 69 1011.8
20260507125713 13 306 8.0 20.9 0.00 0.05 0.03 72 1011.8
20260507125608 13 338 8.0 14.5 0.00 0.05 0.03 73 1011.8
20260507125534 13 327 8.0 14.5 0.00 0.05 0.03 72 1011.8
20260507125508 13 279 8.0 14.5 0.00 0.05 0.03 72 1011.8
20260507125408 13 303 8.0 14.5 0.00 0.05 0.03 74 1011.8
20260507125308 13 308 8.0 14.5 0.00 0.05 0.03 74 1011.8
20260507125208 12 11 8.0 14.5 0.00 0.05 0.03 73 1011.8
20260507125102 12 317 8.0 14.5 0.00 0.05 0.03 73 1011.8
20260507125030 12 301 8.0 14.5 0.00 0.05 0.03 73 1011.9
20260507125002 12 342 8.0 14.5 0.00 0.05 0.03 73 1011.9
20260507124902 12 286 8.0 14.5 0.00 0.05 0.03 73 1011.9
20260507124802 12 272 8.0 14.5 0.00 0.05 0.03 73 1012.0
20260507124701 12 277 8.0 14.5 0.00 0.05 0.03 74 1011.9
20260507124602 12 313 8.0 14.5 0.00 0.05 0.03 74 1012.0
20260507124531 12 296 8.0 14.5 0.00 0.05 0.03 74 1012.0
20260507124502 12 289 8.0 14.5 0.00 0.05 0.03 74 1012.0
20260507124402 12 302 8.0 14.5 0.00 0.05 0.03 74 1011.9
20260507124302 12 321 8.0 14.5 0.00 0.05 0.03 75 1011.9
20260507124202 12 302 8.0 16.1 0.00 0.05 0.03 75 1011.9
20260507124101 12 282 8.0 16.1 0.00 0.05 0.03 76 1012.0
20260507124030 12 305 8.0 16.1 0.00 0.05 0.03 76 1012.0
20260507124001 12 294 8.0 16.1 0.00 0.05 0.03 77 1012.0
20260507123901 12 291 8.0 16.1 0.00 0.05 0.03 76 1012.0
20260507123801 12 284 8.0 16.1 0.00 0.05 0.03 76 1012.0
20260507123701 12 286 8.0 16.1 0.00 0.05 0.03 76 1011.9
20260507123601 12 348 8.0 16.1 0.00 0.05 0.03 77 1011.9
20260507123529 12 310 8.0 16.1 0.00 0.05 0.03 77 1011.9
20260507123501 12 317 8.0 16.1 0.00 0.05 0.03 77 1011.9
20260507123402 12 312 8.0 16.1 0.00 0.05 0.03 77 1011.9
20260507123301 11 343 8.0 16.1 0.00 0.05 0.03 78 1011.9
20260507123201 11 301 8.0 14.5 0.00 0.05 0.03 78 1011.9
20260507123101 11 311 8.0 16.1 0.00 0.05 0.03 77 1011.9
20260507123029 11 300 8.0 16.1 0.00 0.05 0.03 78 1011.9
20260507123001 11 343 8.0 16.1 0.00 0.05 0.03 78 1011.9
20260507122801 11 343 8.0 16.1 0.00 0.05 0.03 78 1011.9
20260507122701 11 271 8.0 16.1 0.00 0.05 0.03 78 1011.9
20260507122601 11 318 8.0 16.1 0.00 0.05 0.03 78 1011.9
20260507122529 11 299 8.0 16.1 0.00 0.05 0.03 78 1011.9
20260507122500 11 302 8.0 16.1 0.00 0.05 0.03 78 1011.9
20260507122401 11 312 8.0 17.7 0.00 0.05 0.03 78 1011.9
20260507122306 11 281 8.0 19.3 0.00 0.05 0.03 77 1011.9
20260507122201 11 340 9.7 19.3 0.00 0.05 0.03 77 1011.9
20260507122101 11 330 9.7 19.3 0.00 0.05 0.03 77 1011.8
20260507122029 11 338 9.7 19.3 0.00 0.05 0.03 76 1011.8
20260507122001 11 292 9.7 19.3 0.00 0.05 0.03 76 1011.8
20260507121901 12 300 11.3 19.3 0.00 0.05 0.03 76 1011.9
20260507121801 12 342 11.3 24.1 0.00 0.05 0.03 76 1011.8
20260507121701 12 328 12.9 24.1 0.00 0.05 0.03 75 1011.8
20260507121601 12 340 12.9 24.1 0.00 0.05 0.03 75 1011.9
20260507121529 12 310 14.5 24.1 0.00 0.05 0.03 75 1011.8
20260507121500 12 329 14.5 24.1 0.00 0.05 0.03 74 1011.8
20260507121400 12 321 14.5 24.1 0.00 0.05 0.03 75 1011.9
20260507121300 12 327 12.9 24.1 0.00 0.05 0.03 75 1011.9
20260507121200 12 294 12.9 24.1 0.00 0.05 0.03 74 1011.9
20260507121101 12 319 14.5 24.1 0.00 0.05 0.03 73 1011.8
20260507121029 12 322 14.5 24.1 0.00 0.05 0.03 73 1011.8
20260507121001 12 302 14.5 24.1 0.00 0.05 0.03 73 1011.8
20260507120901 12 342 12.9 24.1 0.00 0.05 0.03 73 1011.7
20260507120801 12 333 12.9 22.5 0.00 0.05 0.03 73 1011.8
20260507120756 13 319 11.3 20.9 0.00 0.05 0.03 73 1011.8
20260507120744 13 320 12.9 22.5 0.00 0.05 0.03 73 1011.8
20260507120740 13 316 12.9 22.5 0.00 0.05 0.03 73 1011.8
20260507120526 13 317 9.7 20.9 0.00 0.05 0.03 73 1011.7
20260507120519 13 334 11.3 20.9 0.00 0.05 0.03 72 1011.8
20260507120511 13 311 11.3 20.9 0.00 0.05 0.03 73 1011.8
20260507120507 13 319 11.3 20.9 0.00 0.05 0.03 73 1011.8
20260507120245 13 331 11.3 20.9 0.00 0.05 0.03 73 1011.9
20260507120241 13 296 9.7 20.9 0.00 0.05 0.03 73 1011.8
20260507120008 13 341 9.7 20.9 0.00 0.05 0.03 72 1011.7
20260507115900 13 308 9.7 20.9 0.00 0.05 0.03 71 1011.7
20260507115801 13 326 8.0 20.9 0.00 0.05 0.03 71 1011.7
20260507115601 13 303 8.0 16.1 0.00 0.05 0.03 72 1011.6
20260507115528 12 305 8.0 16.1 0.00 0.05 0.03 73 1011.6
20260507115502 12 298 8.0 16.1 0.00 0.05 0.03 73 1011.6
20260507115401 12 284 8.0 16.1 0.00 0.05 0.03 73 1011.8
20260507115301 12 259 8.0 14.5 0.00 0.05 0.03 72 1011.6
20260507115201 12 278 8.0 14.5 0.00 0.05 0.03 72 1011.6
20260507115101 12 265 8.0 14.5 0.00 0.05 0.03 73 1011.7
20260507115029 12 269 8.0 14.5 0.00 0.05 0.03 74 1011.7
20260507115000 12 258 8.0 14.5 0.00 0.05 0.03 74 1011.7
20260507114900 12 292 8.0 14.5 0.00 0.05 0.03 74 1011.7
20260507114801 12 280 8.0 14.5 0.00 0.05 0.03 73 1011.8
20260507114701 12 267 9.7 14.5 0.00 0.05 0.03 73 1011.8
20260507114601 12 299 9.7 16.1 0.00 0.05 0.03 73 1011.8
20260507114528 12 259 9.7 16.1 0.00 0.05 0.03 73 1011.9
20260507114501 12 245 9.7 16.1 0.00 0.05 0.03 73 1011.9
20260507114400 12 273 9.7 17.7 0.00 0.05 0.03 73 1011.8
20260507114300 12 259 9.7 17.7 0.00 0.05 0.03 73 1011.9
20260507114250 11 281 9.7 17.7 0.00 0.05 0.03 73 1011.9
20260507114245 11 259 9.7 17.7 0.00 0.05 0.03 73 1011.8
20260507114241 11 288 11.3 17.7 0.00 0.05 0.03 73 1011.9
20260507114002 11 261 9.7 17.7 0.00 0.05 0.03 73 1011.9
20260507113902 11 265 11.3 17.7 0.00 0.05 0.03 73 1011.9
20260507113801 11 291 11.3 17.7 0.00 0.05 0.03 72 1011.9
20260507113749 11 281 9.7 17.7 0.00 0.05 0.03 72 1011.9
20260507113742 11 249 11.3 17.7 0.00 0.05 0.03 73 1011.9
20260507113738 11 284 11.3 17.7 0.00 0.05 0.03 73 1011.9
20260507113734 11 265 11.3 17.7 0.00 0.05 0.03 73 1011.9
20260507113518 11 276 11.3 17.7 0.00 0.05 0.03 73 1011.9
20260507113510 11 261 11.3 17.7 0.00 0.05 0.03 72 1011.9
20260507113506 11 258 11.3 17.7 0.00 0.05 0.03 72 1011.9
20260507113245 11 261 9.7 17.7 0.00 0.05 0.03 73 1011.8
20260507113241 11 254 9.7 17.7 0.00 0.05 0.03 73 1011.8
20260507113001 12 246 9.7 17.7 0.00 0.05 0.03 72 1011.9
20260507112901 12 284 9.7 17.7 0.00 0.05 0.03 72 1011.9
20260507112801 12 260 9.7 16.1 0.00 0.05 0.03 72 1011.9
20260507112701 12 267 9.7 16.1 0.00 0.05 0.03 72 1011.9
20260507112601 12 270 9.7 16.1 0.00 0.05 0.03 72 1011.9
20260507112525 12 263 9.7 16.1 0.00 0.05 0.03 72 1011.8
20260507112501 12 258 9.7 16.1 0.00 0.05 0.03 72 1011.8
20260507112401 12 248 9.7 16.1 0.00 0.05 0.03 72 1011.9
20260507112301 12 269 9.7 16.1 0.00 0.05 0.03 73 1011.9
20260507112200 12 262 9.7 16.1 0.00 0.05 0.03 73 1011.8
20260507112056 12 311 9.7 19.3 0.00 0.05 0.03 74 1011.8
20260507112020 12 323 9.7 19.3 0.00 0.05 0.03 74 1011.8
20260507111956 12 267 9.7 19.3 0.00 0.05 0.03 74 1011.8
20260507111856 12 284 9.7 19.3 0.00 0.05 0.03 73 1011.9
20260507111756 12 258 9.7 19.3 0.00 0.05 0.03 73 1011.9
20260507111656 12 271 9.7 19.3 0.00 0.05 0.03 73 1011.8
20260507111550 12 286 8.0 19.3 0.00 0.05 0.03 73 1011.9
20260507111514 12 281 8.0 19.3 0.00 0.05 0.03 74 1011.9
20260507111449 12 251 9.7 19.3 0.00 0.05 0.03 74 1011.8
20260507111350 12 260 9.7 19.3 0.00 0.05 0.03 73 1011.8
20260507111250 12 249 8.0 19.3 0.00 0.05 0.03 74 1011.8
20260507111235 12 259 8.0 17.7 0.00 0.05 0.03 76 1011.8
20260507111222 12 234 8.0 17.7 0.00 0.05 0.03 74 1011.8
20260507111218 12 275 8.0 17.7 0.00 0.05 0.03 75 1011.8
20260507110944 12 257 9.7 17.7 0.00 0.05 0.03 76 1011.7
20260507110844 12 291 9.7 17.7 0.00 0.05 0.03 75 1011.8
20260507110743 12 277 9.7 17.7 0.00 0.05 0.03 76 1011.8
20260507110643 12 248 9.7 17.7 0.00 0.05 0.03 76 1011.8
20260507110538 12 235 9.7 17.7 0.00 0.05 0.03 75 1011.8
20260507110508 12 258 9.7 17.7 0.00 0.05 0.03 75 1011.8
20260507110442 12 261 9.7 17.7 0.00 0.05 0.03 75 1011.8
20260507110338 12 254 9.7 17.7 0.00 0.05 0.03 73 1011.9
20260507110237 12 286 9.7 17.7 0.00 0.05 0.03 73 1011.8
20260507110137 12 242 9.7 17.7 0.00 0.05 0.03 73 1011.8
20260507110032 12 256 9.7 17.7 0.00 0.05 0.03 74 1011.9
20260507110006 12 233 9.7 17.7 0.00 0.05 0.03 74 1011.9
20260507105932 12 254 9.7 17.7 0.00 0.05 0.03 74 1011.8
20260507105832 12 257 9.7 17.7 0.00 0.05 0.03 73 1011.8
20260507105733 12 285 9.7 17.7 0.00 0.05 0.03 73 1011.8
20260507105631 12 225 9.7 17.7 0.00 0.05 0.03 73 1011.8
20260507105531 12 227 9.7 17.7 0.00 0.05 0.03 73 1011.8
20260507105504 12 283 9.7 17.7 0.00 0.05 0.03 73 1011.8
20260507105432 12 203 9.7 17.7 0.00 0.05 0.03 73 1011.8
20260507105332 12 242 11.3 24.1 0.00 0.05 0.03 72 1011.9
20260507105232 12 218 11.3 24.1 0.00 0.05 0.03 73 1011.9
20260507105130 12 227 11.3 24.1 0.00 0.05 0.03 73 1011.8
20260507105002 12 229 11.3 24.1 0.00 0.05 0.03 73 1012.0
20260507104930 12 200 11.3 24.1 0.00 0.05 0.03 73 1011.9
20260507104829 12 214 11.3 24.1 0.00 0.05 0.03 74 1011.9
20260507104729 12 252 11.3 24.1 0.00 0.05 0.03 73 1011.9
20260507104629 12 277 11.3 24.1 0.00 0.05 0.03 75 1011.9
20260507104530 12 240 9.7 24.1 0.00 0.05 0.03 74 1011.9
20260507104502 12 244 9.7 24.1 0.00 0.05 0.03 74 1011.9
20260507104434 12 250 9.7 24.1 0.00 0.05 0.03 73 1012.1
20260507104329 12 280 8.0 20.9 0.00 0.05 0.03 74 1011.9
20260507104229 12 304 8.0 17.7 0.00 0.05 0.03 74 1011.9
20260507104129 12 276 8.0 17.7 0.00 0.05 0.03 76 1011.9
20260507104029 12 245 9.7 17.7 0.00 0.05 0.03 75 1011.9
20260507104002 12 207 9.7 17.7 0.00 0.05 0.03 75 1011.9
20260507103933 12 236 8.0 17.7 0.00 0.05 0.03 75 1012.0
20260507103829 12 223 8.0 17.7 0.00 0.05 0.03 75 1012.0
20260507103729 12 234 8.0 17.7 0.00 0.05 0.03 77 1012.0
20260507103629 12 239 9.7 17.7 0.00 0.05 0.03 76 1012.0
20260507103529 12 275 9.7 17.7 0.00 0.05 0.03 76 1011.9
20260507103502 12 302 9.7 17.7 0.00 0.05 0.03 76 1011.9
20260507103429 11 244 9.7 17.7 0.00 0.05 0.03 75 1012.0
20260507103328 11 280 9.7 17.7 0.00 0.05 0.03 76 1012.1
20260507103228 11 284 9.7 16.1 0.00 0.05 0.03 76 1012.0
20260507103134 11 283 9.7 16.1 0.00 0.05 0.03 77 1012.1
20260507103029 11 244 9.7 16.1 0.00 0.05 0.03 77 1012.0
20260507103002 11 226 9.7 16.1 0.00 0.05 0.03 77 1012.0
20260507102929 11 274 9.7 16.1 0.00 0.05 0.03 77 1012.0
20260507102828 11 237 9.7 16.1 0.00 0.05 0.03 77 1012.0
20260507102729 11 235 9.7 16.1 0.00 0.05 0.03 77 1012.0
20260507102629 11 275 8.0 16.1 0.00 0.05 0.03 76 1012.0
20260507102529 11 267 8.0 16.1 0.00 0.05 0.03 76 1012.0
20260507102501 11 249 8.0 16.1 0.00 0.05 0.03 77 1012.0
20260507102429 11 259 8.0 16.1 0.00 0.05 0.03 77 1012.0
20260507102329 11 256 8.0 16.1 0.00 0.05 0.03 77 1012.0
20260507102229 11 284 9.7 16.1 0.00 0.05 0.03 77 1012.0
20260507102128 11 288 9.7 17.7 0.00 0.05 0.03 77 1012.0
20260507102026 11 283 9.7 17.7 0.00 0.05 0.03 77 1012.0
20260507102002 11 248 9.7 17.7 0.00 0.05 0.03 77 1012.0
20260507101925 11 241 9.7 17.7 0.00 0.05 0.03 77 1012.1
20260507101825 11 265 9.7 17.7 0.00 0.05 0.03 77 1012.0
20260507101725 11 261 9.7 17.7 0.00 0.05 0.03 76 1012.0
20260507101620 11 266 11.3 17.7 0.00 0.05 0.03 76 1012.0
20260507101520 11 276 11.3 17.7 0.00 0.05 0.03 75 1012.1
20260507101502 11 242 11.3 17.7 0.00 0.05 0.03 75 1012.1
20260507101420 11 255 11.3 17.7 0.00 0.05 0.03 75 1012.1
20260507101319 11 254 11.3 17.7 0.00 0.05 0.03 75 1012.1
20260507101219 11 252 11.3 17.7 0.00 0.05 0.03 76 1012.1
20260507101114 11 255 11.3 17.7 0.00 0.05 0.03 77 1012.0
20260507101014 11 257 9.7 17.7 0.03 0.05 0.03 76 1012.0
20260507101002 11 230 9.7 17.7 0.03 0.05 0.03 76 1012.0
20260507100914 11 241 9.7 17.7 0.03 0.05 0.03 76 1012.0
20260507100814 11 220 9.7 17.7 0.03 0.05 0.03 77 1012.0
20260507100726 11 275 9.7 17.7 0.03 0.05 0.03 76 1012.0
20260507100721 11 246 11.3 17.7 0.03 0.05 0.03 76 1012.0
20260507100717 11 255 11.3 17.7 0.03 0.05 0.03 77 1012.0
20260507100713 11 255 9.7 17.7 0.03 0.05 0.03 76 1012.0
20260507100408 11 257 9.7 17.7 0.03 0.05 0.03 77 1012.0
20260507100308 11 260 11.3 19.3 0.03 0.05 0.03 76 1012.0
20260507100208 11 267 11.3 20.9 0.03 0.05 0.03 78 1012.0
20260507100103 11 269 11.3 20.9 0.03 0.05 0.03 79 1011.9
20260507100000 11 240 11.3 20.9 0.03 0.05 0.03 79 1012.0
20260507095903 11 300 11.3 20.9 0.03 0.05 0.03 78 1011.9
20260507095803 11 265 11.3 20.9 0.03 0.05 0.03 78 1012.0
20260507095703 11 267 11.3 20.9 0.03 0.05 0.03 79 1012.0
20260507095604 11 241 9.7 20.9 0.03 0.05 0.03 81 1012.1
20260507095505 11 271 9.7 20.9 0.03 0.05 0.03 80 1012.0
20260507095501 11 261 9.7 20.9 0.03 0.05 0.03 80 1012.0
20260507095404 11 215 9.7 20.9 0.03 0.05 0.03 81 1012.1
20260507095306 11 252 8.0 20.9 0.03 0.05 0.03 80 1012.0
20260507095224 11 261 8.0 17.7 0.03 0.05 0.03 80 1012.0
20260507095220 11 221 8.0 17.7 0.03 0.05 0.03 80 1012.0
20260507095216 11 262 9.7 17.7 0.03 0.05 0.03 81 1012.0
20260507095212 11 227 8.0 17.7 0.03 0.05 0.03 80 1012.0
20260507094904 11 248 9.7 17.7 0.03 0.05 0.03 81 1012.0
20260507094804 11 221 9.7 19.3 0.03 0.05 0.03 82 1012.0
20260507094704 11 246 9.7 19.3 0.03 0.05 0.03 82 1012.0
20260507094602 11 232 9.7 19.3 0.03 0.05 0.03 83 1011.9
20260507094502 11 262 9.7 19.3 0.03 0.05 0.03 81 1012.0
20260507094401 11 247 9.7 19.3 0.03 0.05 0.03 82 1012.0
20260507094302 11 238 9.7 19.3 0.03 0.05 0.03 82 1011.9
20260507094201 11 238 9.7 19.3 0.03 0.05 0.03 82 1012.1
20260507094101 11 286 8.0 19.3 0.03 0.05 0.03 83 1012.0
20260507094001 11 272 8.0 19.3 0.03 0.05 0.03 82 1012.0
20260507093901 11 253 8.0 19.3 0.03 0.05 0.03 81 1012.0
20260507093801 11 261 8.0 16.1 0.03 0.05 0.03 82 1012.0
20260507093701 11 235 6.4 16.1 0.03 0.05 0.03 83 1012.0
20260507093601 10 277 6.4 14.5 0.03 0.05 0.03 83 1011.9
20260507093500 10 219 6.4 14.5 0.03 0.05 0.03 84 1011.9
20260507093401 10 233 6.4 14.5 0.03 0.05 0.03 84 1011.9
20260507093301 10 229 6.4 14.5 0.03 0.05 0.03 84 1011.9
20260507093201 10 238 6.4 14.5 0.03 0.05 0.03 83 1011.9
20260507093101 10 245 6.4 14.5 0.03 0.05 0.03 84 1011.9
20260507093001 10 223 6.4 14.5 0.03 0.05 0.03 84 1011.9
20260507092901 10 235 6.4 14.5 0.03 0.05 0.03 84 1012.0
20260507092801 10 213 6.4 14.5 0.03 0.05 0.03 83 1011.9
20260507092700 10 244 6.4 16.1 0.03 0.05 0.03 83 1011.9
20260507092557 10 233 8.0 20.9 0.03 0.05 0.03 83 1011.9
20260507092502 10 218 8.0 20.9 0.03 0.05 0.03 84 1011.9
20260507092457 10 218 8.0 20.9 0.03 0.05 0.03 84 1011.9
20260507092358 10 226 8.0 20.9 0.03 0.05 0.03 85 1011.9
20260507092257 10 271 8.0 20.9 0.03 0.05 0.03 85 1011.9
20260507092154 10 262 8.0 20.9 0.03 0.05 0.03 85 1011.9
20260507092054 10 267 8.0 20.9 0.03 0.05 0.03 84 1011.8
20260507092000 10 214 9.7 20.9 0.03 0.05 0.03 84 1011.8
20260507091954 10 213 8.0 20.9 0.03 0.05 0.03 84 1011.8
20260507091854 10 239 8.0 20.9 0.03 0.05 0.03 84 1011.9
20260507091752 10 227 8.0 20.9 0.03 0.05 0.03 84 1011.9
20260507091652 10 220 8.0 20.9 0.03 0.05 0.03 85 1011.9
20260507091552 10 261 9.7 17.7 0.03 0.05 0.03 85 1011.9
20260507091502 10 229 9.7 17.7 0.03 0.05 0.03 85 1011.9
20260507091451 10 229 9.7 17.7 0.03 0.05 0.03 85 1011.8
20260507091351 10 240 8.0 17.7 0.03 0.05 0.03 85 1011.8
20260507091252 10 240 8.0 17.7 0.03 0.05 0.03 85 1011.8
20260507091152 10 240 8.0 17.7 0.03 0.05 0.03 85 1011.9
20260507091052 10 234 8.0 17.7 0.03 0.05 0.00 85 1011.8
20260507091001 10 284 8.0 17.7 0.00 0.03 0.00 84 1011.8
20260507090951 10 285 8.0 17.7 0.00 0.03 0.00 84 1011.7
20260507090851 10 223 9.7 17.7 0.00 0.03 0.00 85 1011.9
20260507090751 10 241 9.7 17.7 0.00 0.03 0.00 85 1011.8
20260507090651 10 247 9.7 22.5 0.00 0.03 0.00 85 1011.8
20260507090551 10 257 9.7 22.5 0.00 0.03 0.00 85 1011.8
20260507090501 10 277 9.7 22.5 0.00 0.03 0.00 85 1011.8
20260507090448 10 269 9.7 22.5 0.00 0.03 0.00 84 1011.7
20260507090348 10 228 9.7 22.5 0.00 0.03 0.00 85 1011.8
20260507090247 10 209 9.7 22.5 0.00 0.03 0.00 85 1011.8
20260507090147 10 248 9.7 22.5 0.00 0.03 0.00 84 1011.9
20260507090047 10 271 8.0 22.5 0.00 0.03 0.00 84 1011.7
20260507090001 10 263 8.0 22.5 0.00 0.03 0.00 83 1011.7
20260507085948 10 258 8.0 22.5 0.00 0.03 0.00 83 1011.7
20260507085848 10 248 8.0 22.5 0.00 0.03 0.00 84 1011.8
20260507085747 10 235 8.0 22.5 0.00 0.03 0.00 83 1011.7
20260507085647 10 261 8.0 19.3 0.00 0.03 0.00 83 1011.6
20260507085547 10 234 8.0 17.7 0.00 0.03 0.00 83 1011.7
20260507085500 10 208 8.0 17.7 0.00 0.03 0.00 84 1011.7
20260507085447 10 244 8.0 17.7 0.00 0.03 0.00 84 1011.6
20260507085348 10 220 8.0 19.3 0.00 0.03 0.00 84 1011.6
20260507085248 10 213 8.0 19.3 0.00 0.03 0.00 84 1011.6
20260507085148 10 218 9.7 19.3 0.00 0.03 0.00 84 1011.6
20260507085048 10 222 9.7 19.3 0.00 0.03 0.00 84 1011.6
20260507085001 10 236 9.7 19.3 0.00 0.03 0.00 84 1011.6
20260507084947 10 260 9.7 19.3 0.00 0.03 0.00 84 1011.6
20260507084847 10 245 9.7 19.3 0.00 0.03 0.00 84 1011.6
20260507084748 10 239 8.0 19.3 0.00 0.03 0.00 83 1011.6
20260507084648 10 278 9.7 19.3 0.00 0.03 0.00 83 1011.5
20260507084544 10 217 9.7 19.3 0.00 0.03 0.00 83 1011.6
20260507084501 10 289 9.7 19.3 0.00 0.03 0.00 82 1011.6
20260507084443 10 240 8.0 19.3 0.00 0.03 0.00 82 1011.6
20260507084343 10 281 8.0 14.5 0.00 0.03 0.00 83 1011.5
20260507084243 10 232 8.0 14.5 0.00 0.03 0.00 83 1011.5
20260507084143 10 272 8.0 16.1 0.00 0.03 0.00 82 1011.5
20260507084043 10 269 9.7 19.3 0.00 0.03 0.00 82 1011.5
20260507084001 10 252 9.7 19.3 0.00 0.03 0.00 81 1011.5
20260507083944 10 255 9.7 19.3 0.00 0.03 0.00 81 1011.5
20260507083844 10 253 9.7 19.3 0.00 0.03 0.00 81 1011.5
20260507083744 10 269 9.7 19.3 0.00 0.03 0.00 81 1011.5
20260507083723 10 214 9.7 19.3 0.00 0.03 0.00 81 1011.5
20260507083716 10 234 9.7 19.3 0.00 0.03 0.00 81 1011.5
20260507083712 10 233 9.7 19.3 0.00 0.03 0.00 81 1011.5
20260507083443 10 230 9.7 19.3 0.00 0.03 0.00 81 1011.5
20260507083343 10 246 9.7 19.3 0.00 0.03 0.00 81 1011.5
20260507083243 10 245 11.3 19.3 0.00 0.03 0.00 80 1011.5
20260507083144 10 252 11.3 22.5 0.00 0.03 0.00 81 1011.6
20260507083044 10 250 11.3 24.1 0.00 0.03 0.00 82 1011.5
20260507083001 10 285 11.3 24.1 0.00 0.03 0.00 82 1011.5
20260507082943 10 255 11.3 24.1 0.00 0.03 0.00 81 1011.5
20260507082843 10 266 11.3 24.1 0.00 0.03 0.00 81 1011.4
20260507082743 10 223 11.3 24.1 0.00 0.03 0.00 81 1011.5
20260507082639 10 274 11.3 24.1 0.00 0.03 0.00 82 1011.5
20260507082539 10 220 11.3 24.1 0.00 0.03 0.00 81 1011.4
20260507082501 10 273 11.3 24.1 0.00 0.03 0.00 81 1011.4
20260507082440 10 238 11.3 24.1 0.00 0.03 0.00 81 1011.5
20260507082340 10 241 11.3 24.1 0.00 0.03 0.00 81 1011.4
20260507082240 10 236 11.3 24.1 0.00 0.03 0.00 81 1011.6
20260507082140 10 226 11.3 24.1 0.00 0.03 0.00 81 1011.4
20260507082040 10 242 12.9 20.9 0.00 0.03 0.00 81 1011.4
20260507082001 10 296 12.9 20.9 0.00 0.03 0.00 81 1011.4
20260507081939 10 265 12.9 20.9 0.00 0.03 0.00 81 1011.5
20260507081840 10 242 12.9 20.9 0.00 0.03 0.00 81 1011.4
20260507081740 10 263 12.9 20.9 0.00 0.03 0.00 81 1011.4
20260507081639 10 233 12.9 20.9 0.00 0.03 0.00 81 1011.3
20260507081539 10 223 12.9 22.5 0.00 0.03 0.00 81 1011.4
20260507081502 10 250 12.9 22.5 0.00 0.03 0.00 81 1011.4
20260507081439 10 251 12.9 22.5 0.00 0.03 0.00 81 1011.4
20260507081340 10 255 14.5 22.5 0.00 0.03 0.00 80 1011.4
20260507081240 10 271 14.5 22.5 0.00 0.03 0.00 81 1011.2
20260507081222 10 268 12.9 22.5 0.00 0.03 0.00 80 1011.3
20260507081217 10 259 12.9 22.5 0.00 0.03 0.00 81 1011.4
20260507081213 10 278 12.9 22.5 0.00 0.03 0.00 80 1011.3
20260507080940 10 254 12.9 22.5 0.00 0.03 0.00 80 1011.4
20260507080840 10 278 11.3 22.5 0.00 0.03 0.00 80 1011.3
20260507080735 10 268 11.3 22.5 0.00 0.03 0.00 81 1011.2
20260507080635 10 234 11.3 22.5 0.00 0.03 0.00 81 1011.5
20260507080535 10 287 11.3 22.5 0.00 0.03 0.00 82 1011.3
20260507080501 10 257 11.3 22.5 0.00 0.03 0.00 81 1011.3
20260507080435 10 248 12.9 22.5 0.00 0.03 0.00 81 1011.3
20260507080335 10 232 11.3 22.5 0.00 0.03 0.00 81 1011.3
20260507080236 10 227 11.3 20.9 0.00 0.03 0.00 81 1011.3
20260507080135 10 244 11.3 20.9 0.00 0.03 0.00 81 1011.2
20260507080035 10 221 11.3 20.9 0.00 0.03 0.00 81 1011.2
20260507080000 10 233 11.3 20.9 0.00 0.03 0.00 80 1011.2
20260507075936 10 246 11.3 20.9 0.00 0.03 0.00 80 1011.2
20260507075836 10 225 11.3 20.9 0.00 0.03 0.00 80 1011.2
20260507075735 10 233 11.3 20.9 0.00 0.03 0.00 80 1011.2
20260507075635 10 232 11.3 22.5 0.00 0.03 0.00 80 1011.2
20260507075535 10 241 11.3 22.5 0.00 0.03 0.00 80 1011.2
20260507075502 10 265 11.3 22.5 0.00 0.03 0.00 80 1011.2
20260507075457 10 271 11.3 22.5 0.00 0.03 0.00 80 1011.1
20260507075452 10 250 11.3 22.5 0.00 0.03 0.00 80 1011.2
20260507075448 10 226 11.3 22.5 0.00 0.03 0.00 80 1011.2
20260507075440 10 290 11.3 22.5 0.00 0.03 0.00 80 1011.2
20260507075215 10 208 11.3 22.5 0.00 0.03 0.00 80 1011.1
20260507075211 10 252 11.3 22.5 0.00 0.03 0.00 80 1011.1
20260507074936 10 217 11.3 22.5 0.00 0.03 0.00 81 1011.2
20260507074830 10 265 11.3 22.5 0.00 0.03 0.00 80 1011.2
20260507074730 10 265 11.3 22.5 0.00 0.03 0.00 80 1011.2
20260507074629 10 275 11.3 22.5 0.00 0.03 0.00 80 1011.1
20260507074529 10 252 11.3 22.5 0.00 0.03 0.00 80 1011.2
20260507074501 10 229 11.3 22.5 0.00 0.03 0.00 80 1011.2
20260507074454 10 294 12.9 22.5 0.00 0.03 0.00 79 1011.0
20260507074449 10 252 12.9 22.5 0.00 0.03 0.00 80 1011.0
20260507074445 10 249 12.9 22.5 0.00 0.03 0.00 79 1011.1
20260507074436 10 252 12.9 22.5 0.00 0.03 0.00 79 1011.1
20260507074217 10 271 12.9 22.5 0.00 0.03 0.00 79 1011.1
20260507074213 10 262 12.9 22.5 0.00 0.03 0.00 79 1011.0
20260507073929 10 279 12.9 22.5 0.00 0.03 0.00 79 1011.1
20260507073829 10 275 12.9 22.5 0.00 0.03 0.00 79 1011.2
20260507073729 10 267 11.3 20.9 0.00 0.03 0.00 79 1011.0
20260507073629 10 294 11.3 20.9 0.00 0.03 0.00 80 1011.1
20260507073529 10 294 11.3 20.9 0.00 0.03 0.00 79 1011.0
20260507073501 10 269 11.3 20.9 0.00 0.03 0.00 80 1011.0
20260507073429 10 244 11.3 20.9 0.00 0.03 0.00 80 1011.1
20260507073329 10 267 11.3 20.9 0.00 0.03 0.00 80 1010.9
20260507073229 10 234 11.3 20.9 0.00 0.03 0.00 80 1011.0
20260507073128 10 298 11.3 20.9 0.00 0.03 0.00 79 1011.0
20260507073001 10 243 12.9 20.9 0.00 0.03 0.00 79 1010.9
20260507072925 10 238 12.9 20.9 0.00 0.03 0.00 79 1011.0
20260507072825 10 245 11.3 20.9 0.00 0.03 0.00 80 1011.0
20260507072728 10 271 11.3 20.9 0.00 0.03 0.00 79 1010.9
20260507072724 10 256 11.3 20.9 0.00 0.03 0.00 79 1011.0
20260507072716 10 248 11.3 20.9 0.00 0.03 0.00 79 1010.9
20260507072712 10 288 11.3 20.9 0.00 0.03 0.00 79 1011.0
20260507072425 10 294 11.3 20.9 0.00 0.03 0.00 79 1011.0
20260507072325 10 275 12.9 20.9 0.00 0.03 0.00 80 1011.0
20260507072230 10 290 12.9 27.4 0.00 0.03 0.00 81 1010.9
20260507072225 10 265 12.9 27.4 0.00 0.03 0.00 80 1010.9
20260507072217 10 255 12.9 27.4 0.00 0.03 0.00 81 1010.9
20260507072213 10 267 12.9 27.4 0.00 0.03 0.00 81 1010.9
20260507071925 10 265 12.9 27.4 0.00 0.03 0.00 81 1010.9
20260507071824 10 277 14.5 27.4 0.00 0.03 0.00 81 1010.9
20260507071721 10 251 14.5 27.4 0.00 0.03 0.00 81 1010.8
20260507071621 10 261 14.5 27.4 0.00 0.03 0.00 80 1010.8
20260507071520 10 261 14.5 27.4 0.00 0.03 0.00 80 1010.8
20260507071500 10 257 14.5 27.4 0.00 0.03 0.00 80 1010.8
20260507071419 10 271 14.5 27.4 0.00 0.03 0.00 80 1010.9
20260507071318 10 290 14.5 27.4 0.00 0.03 0.00 80 1010.9
20260507071217 10 217 12.9 20.9 0.00 0.03 0.00 80 1010.8
20260507071117 10 262 12.9 20.9 0.00 0.03 0.00 80 1010.8
20260507071017 10 271 12.9 22.5 0.00 0.03 0.00 80 1010.8
20260507071001 10 257 12.9 22.5 0.00 0.03 0.00 80 1010.8
20260507070917 10 262 12.9 22.5 0.00 0.03 0.00 80 1010.8
20260507070818 10 254 12.9 22.5 0.00 0.03 0.00 80 1010.8
20260507070717 10 264 12.9 22.5 0.00 0.03 0.00 80 1010.8
20260507070617 10 267 12.9 22.5 0.00 0.03 0.00 80 1010.8
20260507070517 10 292 12.9 22.5 0.00 0.03 0.00 81 1011.0
20260507070503 10 281 12.9 22.5 0.00 0.03 0.00 81 1011.0
20260507070417 10 257 12.9 22.5 0.00 0.03 0.00 81 1010.8
20260507070317 10 234 12.9 22.5 0.00 0.03 0.00 81 1010.7
20260507070216 10 283 12.9 22.5 0.00 0.03 0.00 81 1010.8
20260507070115 10 250 12.9 22.5 0.00 0.03 0.00 81 1010.8
20260507070016 10 262 11.3 20.9 0.00 0.03 0.00 81 1010.7
20260507070003 10 256 11.3 20.9 0.00 0.03 0.00 80 1010.7
20260507065915 10 220 11.3 20.9 0.00 0.03 0.00 80 1010.7
20260507065815 10 285 11.3 20.9 0.00 0.03 0.00 80 1010.8
20260507065716 10 246 11.3 20.9 0.00 0.03 0.00 80 1010.8
20260507065615 10 240 9.7 20.9 0.00 0.03 0.00 81 1010.7
20260507065509 10 257 9.7 20.9 0.00 0.03 0.00 80 1010.7
20260507065502 10 241 9.7 20.9 0.00 0.03 0.00 80 1010.7
20260507065410 10 249 8.0 20.9 0.00 0.03 0.00 80 1010.7
20260507065309 10 238 8.0 20.9 0.00 0.03 0.00 80 1010.7
20260507065209 10 234 6.4 17.7 0.00 0.03 0.00 81 1010.7
20260507065108 10 231 6.4 16.1 0.00 0.03 0.00 81 1010.7
20260507065005 10 221 6.4 16.1 0.00 0.03 0.00 81 1010.6
20260507065001 10 192 6.4 16.1 0.00 0.03 0.00 81 1010.6
20260507064902 10 262 8.0 19.3 0.00 0.03 0.00 81 1010.6
20260507064802 10 238 8.0 22.5 0.00 0.03 0.00 81 1010.7
20260507064701 10 232 8.0 22.5 0.00 0.03 0.00 80 1010.6
20260507064601 10 235 8.0 22.5 0.00 0.03 0.00 81 1010.6
20260507064503 10 242 8.0 22.5 0.00 0.03 0.00 81 1010.6
20260507064401 10 284 8.0 22.5 0.00 0.03 0.00 81 1010.5
20260507064201 10 227 9.7 22.5 0.00 0.03 0.00 81 1010.5
20260507064101 10 251 9.7 22.5 0.00 0.03 0.00 81 1010.5
20260507064003 10 278 11.3 22.5 0.00 0.03 0.00 81 1010.6
20260507063901 10 275 11.3 22.5 0.00 0.03 0.00 81 1010.5
20260507063801 10 238 9.7 22.5 0.00 0.03 0.00 81 1010.6